Time,TemperatureF,DewpointF,PressureIn,WindDirection,WindDirectionDegrees,WindSpeedMPH,WindSpeedGustMPH,Humidity,HourlyPrecipIn,Conditions,Clouds,dailyrainin,SoftwareType,DateUTC
2013-03-18 00:00:00,18.2,13.1,30.24,ESE,104,2.0,2.0,80,0.00,,,0.00,Wunderground v.1.15,2013-03-18 04:00:00,
2013-03-18 00:01:00,18.2,13.1,30.24,ESE,104,2.0,2.0,80,0.00,,,0.00,Wunderground v.1.15,2013-03-18 04:01:00,
2013-03-18 00:03:00,18.2,13.1,30.25,ESE,117,2.0,3.0,80,0.00,,,0.00,Wunderground v.1.15,2013-03-18 04:03:00,
2013-03-18 00:05:00,18.2,13.1,30.24,East,98,3.0,3.0,80,0.00,,,0.00,Wunderground v.1.15,2013-03-18 04:05:00,
2013-03-18 00:06:00,18.2,13.1,30.25,East,82,2.0,3.0,80,0.00,,,0.00,Wunderground v.1.15,2013-03-18 04:06:00,
2013-03-18 00:07:00,18.2,13.1,30.25,ENE,75,1.0,3.0,80,0.00,,,0.00,Wunderground v.1.15,2013-03-18 04:07:00,
2013-03-18 00:09:00,18.3,13.2,30.24,East,80,1.0,3.0,80,0.00,,,0.00,Wunderground v.1.15,2013-03-18 04:09:00,
2013-03-18 00:10:00,18.3,13.2,30.24,ENE,62,3.0,3.0,80,0.00,,,0.00,Wunderground v.1.15,2013-03-18 04:10:00,
2013-03-18 00:15:00,18.3,13.2,30.24,ENE,58,1.0,3.0,80,0.00,,,0.00,Wunderground v.1.15,2013-03-18 04:15:00,
2013-03-18 00:16:00,18.3,13.2,30.24,ENE,66,1.0,3.0,80,0.00,,,0.00,Wunderground v.1.15,2013-03-18 04:16:00,
2013-03-18 00:18:00,18.4,13.3,30.24,ENE,62,2.0,3.0,80,0.00,,,0.00,Wunderground v.1.15,2013-03-18 04:18:00,
2013-03-18 00:21:00,18.4,13.5,30.24,ENE,66,2.0,4.0,81,0.00,,,0.00,Wunderground v.1.15,2013-03-18 04:21:00,
2013-03-18 00:23:00,18.5,13.6,30.24,ENE,67,2.0,4.0,81,0.00,,,0.00,Wunderground v.1.15,2013-03-18 04:23:00,
2013-03-18 00:24:00,18.5,13.6,30.24,East,90,2.0,4.0,81,0.00,,,0.00,Wunderground v.1.15,2013-03-18 04:24:00,
2013-03-18 00:26:00,18.5,13.6,30.24,ESE,107,3.0,4.0,81,0.00,,,0.00,Wunderground v.1.15,2013-03-18 04:26:00,
2013-03-18 00:27:00,18.6,13.7,30.24,East,93,3.0,4.0,81,0.00,,,0.00,Wunderground v.1.15,2013-03-18 04:27:00,
2013-03-18 00:30:00,18.6,13.7,30.23,East,81,2.0,3.0,81,0.00,,,0.00,Wunderground v.1.15,2013-03-18 04:30:00,
2013-03-18 00:32:00,18.7,13.8,30.23,East,86,2.0,3.0,81,0.00,,,0.00,Wunderground v.1.15,2013-03-18 04:32:00,
2013-03-18 00:33:00,18.7,13.8,30.23,East,86,3.0,3.0,81,0.00,,,0.00,Wunderground v.1.15,2013-03-18 04:33:00,
2013-03-18 00:35:00,18.8,13.9,30.23,East,95,5.0,5.0,81,0.00,,,0.00,Wunderground v.1.15,2013-03-18 04:35:00,
2013-03-18 00:37:00,18.8,13.9,30.23,East,95,2.0,5.0,81,0.00,,,0.00,Wunderground v.1.15,2013-03-18 04:37:00,
2013-03-18 00:38:00,18.8,13.9,30.23,East,86,2.0,5.0,81,0.00,,,0.00,Wunderground v.1.15,2013-03-18 04:38:00,
2013-03-18 00:40:00,18.9,13.7,30.23,ENE,69,2.0,3.0,80,0.00,,,0.00,Wunderground v.1.15,2013-03-18 04:40:00,
2013-03-18 00:41:00,18.9,13.7,30.23,ENE,75,2.0,3.0,80,0.00,,,0.00,Wunderground v.1.15,2013-03-18 04:41:00,
2013-03-18 00:43:00,18.9,14.0,30.23,East,86,2.0,4.0,81,0.00,,,0.00,Wunderground v.1.15,2013-03-18 04:43:00,
2013-03-18 00:44:00,18.9,13.7,30.22,East,80,2.0,4.0,80,0.00,,,0.00,Wunderground v.1.15,2013-03-18 04:44:00,
2013-03-18 00:47:00,18.9,13.7,30.22,ENE,75,2.0,4.0,80,0.00,,,0.00,Wunderground v.1.15,2013-03-18 04:47:00,
2013-03-18 00:49:00,19.0,13.8,30.22,ESE,102,3.0,4.0,80,0.00,,,0.00,Wunderground v.1.15,2013-03-18 04:49:00,
2013-03-18 00:50:00,19.0,13.8,30.22,East,92,4.0,4.0,80,0.00,,,0.00,Wunderground v.1.15,2013-03-18 04:50:00,
2013-03-18 00:51:00,19.0,13.8,30.22,East,95,5.0,5.0,80,0.00,,,0.00,Wunderground v.1.15,2013-03-18 04:51:00,
2013-03-18 00:54:00,19.2,14.0,30.21,East,83,2.0,5.0,80,0.00,,,0.00,Wunderground v.1.15,2013-03-18 04:54:00,
2013-03-18 00:57:00,19.3,14.1,30.21,ESE,104,2.0,5.0,80,0.00,,,0.00,Wunderground v.1.15,2013-03-18 04:57:00,
2013-03-18 00:59:00,19.3,14.1,30.21,East,84,3.0,5.0,80,0.00,,,0.00,Wunderground v.1.15,2013-03-18 04:59:00,
2013-03-18 01:00:00,19.4,14.2,30.21,ENE,75,2.0,3.0,80,0.00,,,0.00,Wunderground v.1.15,2013-03-18 05:00:00,
2013-03-18 01:03:00,19.5,14.0,30.21,East,86,3.0,5.0,79,0.00,,,0.00,Wunderground v.1.15,2013-03-18 05:03:00,
2013-03-18 01:06:00,19.6,14.1,30.21,East,82,4.0,7.0,79,0.00,,,0.00,Wunderground v.1.15,2013-03-18 05:06:00,
2013-03-18 01:07:00,19.6,14.1,30.21,East,82,2.0,7.0,79,0.00,,,0.00,Wunderground v.1.15,2013-03-18 05:07:00,
2013-03-18 01:08:00,19.6,14.1,30.21,East,84,4.0,7.0,79,0.00,,,0.00,Wunderground v.1.15,2013-03-18 05:08:00,
2013-03-18 01:10:00,19.6,13.9,30.21,East,86,1.0,3.0,78,0.00,,,0.00,Wunderground v.1.15,2013-03-18 05:10:00,
2013-03-18 01:12:00,19.6,13.9,30.21,East,94,2.0,3.0,78,0.00,,,0.00,Wunderground v.1.15,2013-03-18 05:12:00,
2013-03-18 01:14:00,19.6,13.9,30.21,East,88,4.0,4.0,78,0.00,,,0.00,Wunderground v.1.15,2013-03-18 05:14:00,
2013-03-18 01:15:00,19.7,14.0,30.21,NE,53,2.0,4.0,78,0.00,,,0.00,Wunderground v.1.15,2013-03-18 05:15:00,
2013-03-18 01:18:00,19.7,14.0,30.21,East,85,4.0,8.0,78,0.00,,,0.00,Wunderground v.1.15,2013-03-18 05:18:00,
2013-03-18 01:19:00,19.8,14.0,30.21,East,92,2.0,8.0,78,0.00,,,0.00,Wunderground v.1.15,2013-03-18 05:19:00,
2013-03-18 01:20:00,19.8,14.0,30.21,ENE,73,2.0,3.0,78,0.00,,,0.00,Wunderground v.1.15,2013-03-18 05:20:00,
2013-03-18 01:21:00,19.8,14.0,30.21,East,86,1.0,3.0,78,0.00,,,0.00,Wunderground v.1.15,2013-03-18 05:21:00,
2013-03-18 01:23:00,19.8,13.8,30.21,NE,56,2.0,3.0,77,0.00,,,0.00,Wunderground v.1.15,2013-03-18 05:23:00,
2013-03-18 01:24:00,19.8,13.8,30.21,East,80,2.0,3.0,77,0.00,,,0.00,Wunderground v.1.15,2013-03-18 05:24:00,
2013-03-18 01:26:00,19.8,13.8,30.21,SE,131,2.0,3.0,77,0.00,,,0.00,Wunderground v.1.15,2013-03-18 05:26:00,
2013-03-18 01:27:00,19.8,13.8,30.21,ENE,73,2.0,3.0,77,0.00,,,0.00,Wunderground v.1.15,2013-03-18 05:27:00,
2013-03-18 01:29:00,19.8,13.8,30.21,East,91,4.0,4.0,77,0.00,,,0.00,Wunderground v.1.15,2013-03-18 05:29:00,
2013-03-18 01:31:00,19.8,13.8,30.21,ENE,70,3.0,3.0,77,0.00,,,0.00,Wunderground v.1.15,2013-03-18 05:31:00,
2013-03-18 01:32:00,19.9,13.9,30.20,ESE,102,3.0,3.0,77,0.00,,,0.00,Wunderground v.1.15,2013-03-18 05:32:00,
2013-03-18 01:33:00,19.8,13.8,30.20,East,79,3.0,3.0,77,0.00,,,0.00,Wunderground v.1.15,2013-03-18 05:33:00,
2013-03-18 01:34:00,19.9,13.9,30.20,East,89,2.0,3.0,77,0.00,,,0.00,Wunderground v.1.15,2013-03-18 05:34:00,
2013-03-18 01:36:00,19.9,13.9,30.20,ENE,78,4.0,5.0,77,0.00,,,0.00,Wunderground v.1.15,2013-03-18 05:36:00,
2013-03-18 01:38:00,19.9,13.9,30.20,ESE,121,1.0,5.0,77,0.00,,,0.00,Wunderground v.1.15,2013-03-18 05:38:00,
2013-03-18 01:39:00,19.9,13.9,30.20,ENE,60,3.0,5.0,77,0.00,,,0.00,Wunderground v.1.15,2013-03-18 05:39:00,
2013-03-18 01:44:00,19.8,13.8,30.20,East,91,3.0,5.0,77,0.00,,,0.00,Wunderground v.1.15,2013-03-18 05:44:00,
2013-03-18 01:47:00,19.8,13.8,30.20,ESE,111,5.0,5.0,77,0.00,,,0.00,Wunderground v.1.15,2013-03-18 05:47:00,
2013-03-18 01:48:00,19.9,13.9,30.20,East,89,7.0,7.0,77,0.00,,,0.00,Wunderground v.1.15,2013-03-18 05:48:00,
2013-03-18 01:49:00,19.9,13.6,30.20,East,86,2.0,7.0,76,0.00,,,0.00,Wunderground v.1.15,2013-03-18 05:49:00,
2013-03-18 01:51:00,19.9,13.6,30.19,East,86,5.0,5.0,76,0.00,,,0.00,Wunderground v.1.15,2013-03-18 05:51:00,
2013-03-18 01:53:00,19.9,13.6,30.19,East,86,2.0,5.0,76,0.00,,,0.00,Wunderground v.1.15,2013-03-18 05:53:00,
2013-03-18 01:54:00,19.9,13.6,30.19,East,93,5.0,5.0,76,0.00,,,0.00,Wunderground v.1.15,2013-03-18 05:54:00,
2013-03-18 01:59:00,19.9,13.6,30.19,East,79,3.0,5.0,76,0.00,,,0.00,Wunderground v.1.15,2013-03-18 05:59:00,
2013-03-18 02:00:00,19.9,13.6,30.19,ESE,104,4.0,4.0,76,0.00,,,0.00,Wunderground v.1.15,2013-03-18 06:00:00,
2013-03-18 02:01:00,19.9,13.6,30.19,East,83,3.0,4.0,76,0.00,,,0.00,Wunderground v.1.15,2013-03-18 06:01:00,
2013-03-18 02:04:00,19.9,13.6,30.19,ENE,70,2.0,5.0,76,0.00,,,0.00,Wunderground v.1.15,2013-03-18 06:04:00,
2013-03-18 02:05:00,19.9,13.6,30.19,East,92,2.0,5.0,76,0.00,,,0.00,Wunderground v.1.15,2013-03-18 06:05:00,
2013-03-18 02:06:00,19.9,13.6,30.19,ENE,76,3.0,5.0,76,0.00,,,0.00,Wunderground v.1.15,2013-03-18 06:06:00,
2013-03-18 02:09:00,20.0,13.6,30.19,East,87,6.0,6.0,76,0.00,,,0.00,Wunderground v.1.15,2013-03-18 06:09:00,
2013-03-18 02:10:00,20.0,13.9,30.19,East,84,1.0,3.0,77,0.00,,,0.00,Wunderground v.1.15,2013-03-18 06:10:00,
2013-03-18 02:11:00,20.0,13.9,30.19,ENE,69,3.0,4.0,77,0.00,,,0.00,Wunderground v.1.15,2013-03-18 06:11:00,
2013-03-18 02:14:00,20.0,13.6,30.19,ESE,120,4.0,5.0,76,0.00,,,0.00,Wunderground v.1.15,2013-03-18 06:14:00,
2013-03-18 02:15:00,20.0,13.9,30.19,NE,46,2.0,5.0,77,0.00,,,0.00,Wunderground v.1.15,2013-03-18 06:15:00,
2013-03-18 02:17:00,20.0,13.9,30.19,East,94,6.0,7.0,77,0.00,,,0.00,Wunderground v.1.15,2013-03-18 06:17:00,
2013-03-18 02:19:00,20.0,13.9,30.19,ENE,72,2.0,7.0,77,0.00,,,0.00,Wunderground v.1.15,2013-03-18 06:19:00,
2013-03-18 02:20:00,20.0,13.9,30.19,East,100,3.0,3.0,77,0.00,,,0.00,Wunderground v.1.15,2013-03-18 06:20:00,
2013-03-18 02:22:00,20.0,13.9,30.19,ENE,69,2.0,3.0,77,0.00,,,0.00,Wunderground v.1.15,2013-03-18 06:22:00,
2013-03-18 02:24:00,20.0,13.9,30.19,East,85,3.0,6.0,77,0.00,,,0.00,Wunderground v.1.15,2013-03-18 06:24:00,
2013-03-18 02:26:00,20.0,13.9,30.19,East,91,5.0,6.0,77,0.00,,,0.00,Wunderground v.1.15,2013-03-18 06:26:00,
2013-03-18 02:27:00,20.0,13.9,30.19,East,87,2.0,6.0,77,0.00,,,0.00,Wunderground v.1.15,2013-03-18 06:27:00,
2013-03-18 02:29:00,20.0,13.9,30.19,East,92,3.0,6.0,77,0.00,,,0.00,Wunderground v.1.15,2013-03-18 06:29:00,
2013-03-18 02:31:00,20.0,13.9,30.20,ENE,74,1.0,3.0,77,0.00,,,0.00,Wunderground v.1.15,2013-03-18 06:31:00,
2013-03-18 02:32:00,20.0,13.9,30.19,East,82,1.0,3.0,77,0.00,,,0.00,Wunderground v.1.15,2013-03-18 06:32:00,
2013-03-18 02:34:00,20.0,13.9,30.19,ESE,107,3.0,3.0,77,0.00,,,0.00,Wunderground v.1.15,2013-03-18 06:34:00,
2013-03-18 02:36:00,20.0,13.9,30.19,ENE,73,2.0,3.0,77,0.00,,,0.00,Wunderground v.1.15,2013-03-18 06:36:00,
2013-03-18 02:37:00,20.0,13.9,30.19,ENE,63,2.0,3.0,77,0.00,,,0.00,Wunderground v.1.15,2013-03-18 06:37:00,
2013-03-18 02:40:00,20.0,13.9,30.19,ENE,75,2.0,2.0,77,0.00,,,0.00,Wunderground v.1.15,2013-03-18 06:40:00,
2013-03-18 02:42:00,20.0,13.9,30.19,East,96,3.0,4.0,77,0.00,,,0.00,Wunderground v.1.15,2013-03-18 06:42:00,
2013-03-18 02:43:00,20.0,13.9,30.19,East,82,3.0,4.0,77,0.00,,,0.00,Wunderground v.1.15,2013-03-18 06:43:00,
2013-03-18 02:45:00,20.0,13.9,30.19,East,82,3.0,4.0,77,0.00,,,0.00,Wunderground v.1.15,2013-03-18 06:45:00,
2013-03-18 02:47:00,20.0,13.9,30.19,East,89,4.0,6.0,77,0.00,,,0.00,Wunderground v.1.15,2013-03-18 06:47:00,
2013-03-18 02:48:00,20.0,13.9,30.19,ENE,74,3.0,6.0,77,0.00,,,0.00,Wunderground v.1.15,2013-03-18 06:48:00,
2013-03-18 02:50:00,20.0,13.9,30.19,East,98,2.0,3.0,77,0.00,,,0.00,Wunderground v.1.15,2013-03-18 06:50:00,
2013-03-18 02:52:00,20.0,13.9,30.19,East,95,2.0,3.0,77,0.00,,,0.00,Wunderground v.1.15,2013-03-18 06:52:00,
2013-03-18 02:53:00,20.0,13.9,30.19,East,100,4.0,5.0,77,0.00,,,0.00,Wunderground v.1.15,2013-03-18 06:53:00,
2013-03-18 02:55:00,20.0,13.9,30.19,East,82,3.0,5.0,77,0.00,,,0.00,Wunderground v.1.15,2013-03-18 06:55:00,
2013-03-18 02:57:00,20.1,14.0,30.19,East,80,4.0,6.0,77,0.00,,,0.00,Wunderground v.1.15,2013-03-18 06:57:00,
2013-03-18 02:58:00,20.1,14.0,30.19,East,92,2.0,7.0,77,0.00,,,0.00,Wunderground v.1.15,2013-03-18 06:58:00,
2013-03-18 03:01:00,20.1,14.0,30.19,ENE,78,3.0,5.0,77,0.00,,,0.00,Wunderground v.1.15,2013-03-18 07:01:00,
2013-03-18 03:02:00,20.1,14.0,30.19,East,95,4.0,6.0,77,0.00,,,0.00,Wunderground v.1.15,2013-03-18 07:02:00,
2013-03-18 03:03:00,20.1,14.0,30.19,East,90,4.0,6.0,77,0.00,,,0.00,Wunderground v.1.15,2013-03-18 07:03:00,
2013-03-18 03:07:00,20.1,14.0,30.18,ESE,104,3.0,6.0,77,0.00,,,0.00,Wunderground v.1.15,2013-03-18 07:07:00,
2013-03-18 03:08:00,20.2,14.1,30.19,East,84,3.0,6.0,77,0.00,,,0.00,Wunderground v.1.15,2013-03-18 07:08:00,
2013-03-18 03:09:00,20.1,14.3,30.18,East,85,2.0,6.0,78,0.00,,,0.00,Wunderground v.1.15,2013-03-18 07:09:00,
2013-03-18 03:12:00,20.2,14.4,30.18,East,86,2.0,3.0,78,0.00,,,0.00,Wunderground v.1.15,2013-03-18 07:12:00,
2013-03-18 03:13:00,20.2,14.4,30.18,East,79,2.0,3.0,78,0.00,,,0.00,Wunderground v.1.15,2013-03-18 07:13:00,
2013-03-18 03:14:00,20.1,14.3,30.18,East,97,4.0,5.0,78,0.00,,,0.00,Wunderground v.1.15,2013-03-18 07:14:00,
2013-03-18 03:17:00,20.2,14.4,30.18,ENE,74,4.0,7.0,78,0.00,,,0.00,Wunderground v.1.15,2013-03-18 07:17:00,
2013-03-18 03:18:00,20.2,14.4,30.18,ENE,77,3.0,7.0,78,0.00,,,0.00,Wunderground v.1.15,2013-03-18 07:18:00,
2013-03-18 03:19:00,20.2,14.4,30.18,ESE,109,5.0,7.0,78,0.00,,,0.00,Wunderground v.1.15,2013-03-18 07:19:00,
2013-03-18 03:22:00,20.3,14.5,30.18,East,93,4.0,5.0,78,0.00,,,0.00,Wunderground v.1.15,2013-03-18 07:22:00,
2013-03-18 03:23:00,20.2,14.4,30.18,East,82,2.0,5.0,78,0.00,,,0.00,Wunderground v.1.15,2013-03-18 07:23:00,
2013-03-18 03:24:00,20.3,14.5,30.18,ENE,78,2.0,5.0,78,0.00,,,0.00,Wunderground v.1.15,2013-03-18 07:24:00,
2013-03-18 03:27:00,20.3,14.5,30.18,East,85,5.0,6.0,78,0.00,,,0.00,Wunderground v.1.15,2013-03-18 07:27:00,
2013-03-18 03:28:00,20.3,14.5,30.18,East,98,6.0,7.0,78,0.00,,,0.00,Wunderground v.1.15,2013-03-18 07:28:00,
2013-03-18 03:29:00,20.3,14.5,30.18,ENE,76,5.0,7.0,78,0.00,,,0.00,Wunderground v.1.15,2013-03-18 07:29:00,
2013-03-18 03:32:00,20.3,14.5,30.17,East,86,3.0,6.0,78,0.00,,,0.00,Wunderground v.1.15,2013-03-18 07:32:00,
2013-03-18 03:33:00,20.3,14.5,30.17,ENE,77,2.0,6.0,78,0.00,,,0.00,Wunderground v.1.15,2013-03-18 07:33:00,
2013-03-18 03:34:00,20.3,14.5,30.17,ENE,74,2.0,6.0,78,0.00,,,0.00,Wunderground v.1.15,2013-03-18 07:34:00,
2013-03-18 03:38:00,20.4,14.9,30.17,East,100,6.0,6.0,79,0.00,,,0.00,Wunderground v.1.15,2013-03-18 07:38:00,
2013-03-18 03:39:00,20.4,14.9,30.17,East,86,3.0,6.0,79,0.00,,,0.00,Wunderground v.1.15,2013-03-18 07:39:00,
2013-03-18 03:43:00,20.4,14.9,30.17,ENE,74,2.0,7.0,79,0.00,,,0.00,Wunderground v.1.15,2013-03-18 07:43:00,
2013-03-18 03:44:00,20.5,15.0,30.17,ENE,61,5.0,7.0,79,0.00,,,0.00,Wunderground v.1.15,2013-03-18 07:44:00,
2013-03-18 03:45:00,20.5,15.0,30.17,ESE,120,4.0,7.0,79,0.00,,,0.00,Wunderground v.1.15,2013-03-18 07:45:00,
2013-03-18 03:48:00,20.6,15.1,30.17,ESE,105,6.0,7.0,79,0.00,,,0.00,Wunderground v.1.15,2013-03-18 07:48:00,
2013-03-18 03:49:00,20.6,15.1,30.17,ENE,74,2.0,7.0,79,0.00,,,0.00,Wunderground v.1.15,2013-03-18 07:49:00,
2013-03-18 03:50:00,20.6,15.1,30.17,ENE,67,3.0,3.0,79,0.00,,,0.00,Wunderground v.1.15,2013-03-18 07:50:00,
2013-03-18 03:53:00,20.7,15.2,30.17,ENE,72,4.0,7.0,79,0.00,,,0.00,Wunderground v.1.15,2013-03-18 07:53:00,
2013-03-18 03:54:00,20.7,15.2,30.17,ENE,67,3.0,7.0,79,0.00,,,0.00,Wunderground v.1.15,2013-03-18 07:54:00,
2013-03-18 03:55:00,20.7,15.2,30.17,East,83,2.0,7.0,79,0.00,,,0.00,Wunderground v.1.15,2013-03-18 07:55:00,
2013-03-18 03:58:00,20.8,15.3,30.17,East,84,3.0,7.0,79,0.00,,,0.00,Wunderground v.1.15,2013-03-18 07:58:00,
2013-03-18 03:59:00,20.8,15.3,30.17,ENE,60,3.0,7.0,79,0.00,,,0.00,Wunderground v.1.15,2013-03-18 07:59:00,
2013-03-18 04:00:00,20.8,15.6,30.16,ENE,72,6.0,6.0,80,0.00,,,0.00,Wunderground v.1.15,2013-03-18 08:00:00,
2013-03-18 04:03:00,20.8,15.6,30.16,East,80,2.0,8.0,80,0.00,,,0.00,Wunderground v.1.15,2013-03-18 08:03:00,
2013-03-18 04:04:00,20.8,15.6,30.16,East,83,2.0,8.0,80,0.00,,,0.00,Wunderground v.1.15,2013-03-18 08:04:00,
2013-03-18 04:05:00,20.8,15.6,30.16,ENE,77,5.0,8.0,80,0.00,,,0.00,Wunderground v.1.15,2013-03-18 08:05:00,
2013-03-18 04:08:00,20.8,15.6,30.15,East,81,3.0,8.0,80,0.00,,,0.00,Wunderground v.1.15,2013-03-18 08:08:00,
2013-03-18 04:09:00,20.8,15.6,30.15,ENE,63,2.0,8.0,80,0.00,,,0.00,Wunderground v.1.15,2013-03-18 08:09:00,
2013-03-18 04:10:00,20.8,15.6,30.15,ENE,69,2.0,4.0,80,0.00,,,0.00,Wunderground v.1.15,2013-03-18 08:10:00,
2013-03-18 04:13:00,20.8,15.6,30.15,East,86,4.0,4.0,80,0.00,,,0.00,Wunderground v.1.15,2013-03-18 08:13:00,
2013-03-18 04:14:00,20.8,15.6,30.15,ESE,111,4.0,6.0,80,0.00,,,0.00,Wunderground v.1.15,2013-03-18 08:14:00,
2013-03-18 04:15:00,20.8,15.6,30.15,East,80,3.0,6.0,80,0.00,,,0.00,Wunderground v.1.15,2013-03-18 08:15:00,
2013-03-18 04:18:00,20.9,16.0,30.15,East,84,2.0,7.0,81,0.00,,,0.00,Wunderground v.1.15,2013-03-18 08:18:00,
2013-03-18 04:19:00,20.9,16.0,30.15,ENE,75,3.0,7.0,81,0.00,,,0.00,Wunderground v.1.15,2013-03-18 08:19:00,
2013-03-18 04:20:00,20.9,16.0,30.15,East,90,4.0,5.0,81,0.00,,,0.00,Wunderground v.1.15,2013-03-18 08:20:00,
2013-03-18 04:24:00,20.9,16.0,30.15,ENE,69,4.0,5.0,81,0.00,,,0.00,Wunderground v.1.15,2013-03-18 08:24:00,
2013-03-18 04:25:00,20.9,16.0,30.14,East,89,2.0,7.0,81,0.00,,,0.00,Wunderground v.1.15,2013-03-18 08:25:00,
2013-03-18 04:29:00,21.0,16.1,30.14,East,91,4.0,7.0,81,0.00,,,0.00,Wunderground v.1.15,2013-03-18 08:29:00,
2013-03-18 04:30:00,21.0,16.1,30.14,ENE,60,3.0,3.0,81,0.00,,,0.00,Wunderground v.1.15,2013-03-18 08:30:00,
2013-03-18 04:34:00,21.1,16.5,30.14,East,101,4.0,7.0,82,0.00,,,0.00,Wunderground v.1.15,2013-03-18 08:34:00,
2013-03-18 04:35:00,21.2,16.6,30.14,East,89,2.0,7.0,82,0.00,,,0.00,Wunderground v.1.15,2013-03-18 08:35:00,
2013-03-18 04:36:00,21.2,16.6,30.14,East,87,5.0,7.0,82,0.00,,,0.00,Wunderground v.1.15,2013-03-18 08:36:00,
2013-03-18 04:39:00,21.2,16.6,30.14,East,87,2.0,7.0,82,0.00,,,0.00,Wunderground v.1.15,2013-03-18 08:39:00,
2013-03-18 04:40:00,21.2,16.6,30.14,East,85,5.0,5.0,82,0.00,,,0.00,Wunderground v.1.15,2013-03-18 08:40:00,
2013-03-18 04:41:00,21.2,16.6,30.14,East,83,2.0,5.0,82,0.00,,,0.00,Wunderground v.1.15,2013-03-18 08:41:00,
2013-03-18 04:42:00,21.3,16.7,30.14,East,97,3.0,5.0,82,0.00,,,0.00,Wunderground v.1.15,2013-03-18 08:42:00,
2013-03-18 04:44:00,21.3,16.7,30.14,NE,53,4.0,6.0,82,0.00,,,0.00,Wunderground v.1.15,2013-03-18 08:44:00,
2013-03-18 04:45:00,21.3,16.7,30.14,East,82,4.0,9.0,82,0.00,,,0.00,Wunderground v.1.15,2013-03-18 08:45:00,
2013-03-18 04:47:00,21.4,16.8,30.14,East,95,4.0,9.0,82,0.00,,,0.00,Wunderground v.1.15,2013-03-18 08:47:00,
2013-03-18 04:49:00,21.5,16.9,30.14,East,87,2.0,9.0,82,0.00,,,0.00,Wunderground v.1.15,2013-03-18 08:49:00,
2013-03-18 04:51:00,21.5,16.9,30.14,East,91,2.0,4.0,82,0.00,,,0.00,Wunderground v.1.15,2013-03-18 08:51:00,
2013-03-18 04:52:00,21.5,16.9,30.14,East,93,3.0,5.0,82,0.00,,,0.00,Wunderground v.1.15,2013-03-18 08:52:00,
2013-03-18 04:53:00,21.5,16.9,30.14,East,83,2.0,5.0,82,0.00,,,0.00,Wunderground v.1.15,2013-03-18 08:53:00,
2013-03-18 04:54:00,21.5,16.9,30.14,ENE,70,1.0,5.0,82,0.00,,,0.00,Wunderground v.1.15,2013-03-18 08:54:00,
2013-03-18 04:56:00,21.5,17.1,30.14,ESE,104,4.0,5.0,83,0.00,,,0.00,Wunderground v.1.15,2013-03-18 08:56:00,
2013-03-18 04:57:00,21.5,17.1,30.14,East,82,4.0,6.0,83,0.00,,,0.00,Wunderground v.1.15,2013-03-18 08:57:00,
2013-03-18 04:58:00,21.6,17.2,30.14,East,79,3.0,6.0,83,0.00,,,0.00,Wunderground v.1.15,2013-03-18 08:58:00,
2013-03-18 04:59:00,21.6,17.2,30.13,East,89,2.0,6.0,83,0.00,,,0.00,Wunderground v.1.15,2013-03-18 08:59:00,
2013-03-18 05:01:00,21.6,17.2,30.13,ENE,64,5.0,6.0,83,0.00,,,0.00,Wunderground v.1.15,2013-03-18 09:01:00,
2013-03-18 05:02:00,21.7,17.3,30.13,East,81,2.0,6.0,83,0.00,,,0.00,Wunderground v.1.15,2013-03-18 09:02:00,
2013-03-18 05:03:00,21.7,17.3,30.13,East,101,6.0,6.0,83,0.00,,,0.00,Wunderground v.1.15,2013-03-18 09:03:00,
2013-03-18 05:04:00,21.7,17.3,30.13,ENE,69,2.0,7.0,83,0.00,,,0.00,Wunderground v.1.15,2013-03-18 09:04:00,
2013-03-18 05:06:00,21.7,17.3,30.13,East,89,7.0,7.0,83,0.00,,,0.00,Wunderground v.1.15,2013-03-18 09:06:00,
2013-03-18 05:07:00,21.8,17.4,30.13,East,98,6.0,7.0,83,0.00,,,0.00,Wunderground v.1.15,2013-03-18 09:07:00,
2013-03-18 05:08:00,21.8,17.4,30.13,ENE,76,2.0,7.0,83,0.00,,,0.00,Wunderground v.1.15,2013-03-18 09:08:00,
2013-03-18 05:09:00,21.8,17.4,30.13,East,79,4.0,7.0,83,0.00,,,0.00,Wunderground v.1.15,2013-03-18 09:09:00,
2013-03-18 05:11:00,21.8,17.4,30.13,ENE,75,3.0,4.0,83,0.00,,,0.00,Wunderground v.1.15,2013-03-18 09:11:00,
2013-03-18 05:12:00,21.8,17.4,30.13,East,79,2.0,8.0,83,0.00,,,0.00,Wunderground v.1.15,2013-03-18 09:12:00,
2013-03-18 05:13:00,21.8,17.4,30.13,ENE,70,3.0,8.0,83,0.00,,,0.00,Wunderground v.1.15,2013-03-18 09:13:00,
2013-03-18 05:15:00,21.9,17.5,30.13,East,86,3.0,8.0,83,0.00,,,0.00,Wunderground v.1.15,2013-03-18 09:15:00,
2013-03-18 05:16:00,21.9,17.8,30.13,ESE,109,5.0,8.0,84,0.00,,,0.00,Wunderground v.1.15,2013-03-18 09:16:00,
2013-03-18 05:17:00,21.9,17.8,30.13,ENE,75,3.0,8.0,84,0.00,,,0.00,Wunderground v.1.15,2013-03-18 09:17:00,
2013-03-18 05:18:00,21.9,17.8,30.13,ENE,75,5.0,8.0,84,0.00,,,0.00,Wunderground v.1.15,2013-03-18 09:18:00,
2013-03-18 05:20:00,21.9,17.8,30.12,NE,45,2.0,5.0,84,0.00,,,0.00,Wunderground v.1.15,2013-03-18 09:20:00,
2013-03-18 05:22:00,22.0,17.9,30.13,East,83,4.0,5.0,84,0.00,,,0.00,Wunderground v.1.15,2013-03-18 09:22:00,
2013-03-18 05:23:00,22.0,17.9,30.12,ENE,75,2.0,7.0,84,0.00,,,0.00,Wunderground v.1.15,2013-03-18 09:23:00,
2013-03-18 05:25:00,22.1,18.0,30.12,ENE,58,2.0,7.0,84,0.00,,,0.00,Wunderground v.1.15,2013-03-18 09:25:00,
2013-03-18 05:27:00,22.1,18.0,30.12,East,81,2.0,7.0,84,0.00,,,0.00,Wunderground v.1.15,2013-03-18 09:27:00,
2013-03-18 05:28:00,22.1,18.0,30.12,ENE,70,2.0,7.0,84,0.00,,,0.00,Wunderground v.1.15,2013-03-18 09:28:00,
2013-03-18 05:29:00,22.1,18.0,30.11,East,90,6.0,7.0,84,0.00,,,0.00,Wunderground v.1.15,2013-03-18 09:29:00,
2013-03-18 05:30:00,22.1,18.0,30.11,East,84,5.0,6.0,84,0.00,,,0.00,Wunderground v.1.15,2013-03-18 09:30:00,
2013-03-18 05:32:00,22.2,18.1,30.11,ENE,73,3.0,7.0,84,0.00,,,0.00,Wunderground v.1.15,2013-03-18 09:32:00,
2013-03-18 05:33:00,22.2,18.1,30.11,East,82,6.0,9.0,84,0.00,,,0.00,Wunderground v.1.15,2013-03-18 09:33:00,
2013-03-18 05:34:00,22.3,18.2,30.11,East,90,8.0,9.0,84,0.00,,,0.00,Wunderground v.1.15,2013-03-18 09:34:00,
2013-03-18 05:35:00,22.3,18.2,30.11,East,82,4.0,9.0,84,0.00,,,0.00,Wunderground v.1.15,2013-03-18 09:35:00,
2013-03-18 05:37:00,22.4,18.6,30.11,East,90,6.0,9.0,85,0.00,,,0.00,Wunderground v.1.15,2013-03-18 09:37:00,
2013-03-18 05:38:00,22.4,18.6,30.11,ENE,73,4.0,9.0,85,0.00,,,0.00,Wunderground v.1.15,2013-03-18 09:38:00,
2013-03-18 05:39:00,22.4,18.6,30.11,ENE,75,4.0,9.0,85,0.00,,,0.00,Wunderground v.1.15,2013-03-18 09:39:00,
2013-03-18 05:41:00,22.5,18.7,30.11,East,87,3.0,5.0,85,0.00,,,0.00,Wunderground v.1.15,2013-03-18 09:41:00,
2013-03-18 05:43:00,22.6,18.8,30.11,East,101,7.0,9.0,85,0.00,,,0.00,Wunderground v.1.15,2013-03-18 09:43:00,
2013-03-18 05:44:00,22.6,18.8,30.11,East,90,4.0,9.0,85,0.00,,,0.00,Wunderground v.1.15,2013-03-18 09:44:00,
2013-03-18 05:46:00,22.7,18.9,30.11,East,97,7.0,9.0,85,0.00,,,0.00,Wunderground v.1.15,2013-03-18 09:46:00,
2013-03-18 05:48:00,22.7,18.9,30.10,East,83,5.0,11.0,85,0.00,,,0.00,Wunderground v.1.15,2013-03-18 09:48:00,
2013-03-18 05:49:00,22.8,19.0,30.10,ENE,68,5.0,11.0,85,0.00,,,0.00,Wunderground v.1.15,2013-03-18 09:49:00,
2013-03-18 05:51:00,22.8,19.0,30.10,East,100,11.0,13.0,85,0.00,,,0.00,Wunderground v.1.15,2013-03-18 09:51:00,
2013-03-18 05:53:00,22.8,19.0,30.10,East,84,8.0,13.0,85,0.00,,,0.00,Wunderground v.1.15,2013-03-18 09:53:00,
2013-03-18 05:54:00,22.8,19.0,30.10,East,91,7.0,13.0,85,0.00,,,0.00,Wunderground v.1.15,2013-03-18 09:54:00,
2013-03-18 05:56:00,22.9,19.1,30.10,East,95,5.0,13.0,85,0.00,,,0.00,Wunderground v.1.15,2013-03-18 09:56:00,
2013-03-18 05:58:00,22.9,19.1,30.10,ENE,72,3.0,13.0,85,0.00,,,0.00,Wunderground v.1.15,2013-03-18 09:58:00,
2013-03-18 05:59:00,22.9,19.1,30.10,ENE,76,6.0,13.0,85,0.00,,,0.00,Wunderground v.1.15,2013-03-18 09:59:00,
2013-03-18 06:02:00,22.9,19.1,30.10,East,97,4.0,9.0,85,0.00,,,0.00,Wunderground v.1.15,2013-03-18 10:02:00,
2013-03-18 06:03:00,22.9,19.1,30.10,ESE,108,4.0,9.0,85,0.00,,,0.00,Wunderground v.1.15,2013-03-18 10:03:00,
2013-03-18 06:05:00,22.9,19.1,30.10,East,86,5.0,9.0,85,0.00,,,0.00,Wunderground v.1.15,2013-03-18 10:05:00,
2013-03-18 06:08:00,23.0,19.2,30.10,NE,49,4.0,9.0,85,0.00,,,0.00,Wunderground v.1.15,2013-03-18 10:08:00,
2013-03-18 06:09:00,23.0,19.2,30.10,East,83,5.0,9.0,85,0.00,,,0.00,Wunderground v.1.15,2013-03-18 10:09:00,
2013-03-18 06:10:00,23.0,19.2,30.10,East,90,5.0,6.0,85,0.00,,,0.00,Wunderground v.1.15,2013-03-18 10:10:00,
2013-03-18 06:13:00,23.0,19.2,30.09,ENE,69,7.0,11.0,85,0.00,,,0.00,Wunderground v.1.15,2013-03-18 10:13:00,
2013-03-18 06:14:00,23.1,19.3,30.09,East,93,6.0,11.0,85,0.00,,,0.00,Wunderground v.1.15,2013-03-18 10:14:00,
2013-03-18 06:15:00,23.1,19.3,30.09,East,97,6.0,11.0,85,0.00,,,0.00,Wunderground v.1.15,2013-03-18 10:15:00,
2013-03-18 06:18:00,23.1,19.3,30.09,East,99,5.0,11.0,85,0.00,,,0.00,Wunderground v.1.15,2013-03-18 10:18:00,
2013-03-18 06:19:00,23.1,19.3,30.09,ENE,69,3.0,11.0,85,0.00,,,0.00,Wunderground v.1.15,2013-03-18 10:19:00,
2013-03-18 06:20:00,23.1,19.3,30.09,ENE,63,3.0,5.0,85,0.00,,,0.00,Wunderground v.1.15,2013-03-18 10:20:00,
2013-03-18 06:23:00,23.2,19.4,30.10,ENE,76,3.0,9.0,85,0.00,,,0.00,Wunderground v.1.15,2013-03-18 10:23:00,
2013-03-18 06:24:00,23.2,19.4,30.10,East,87,8.0,9.0,85,0.00,,,0.00,Wunderground v.1.15,2013-03-18 10:24:00,
2013-03-18 06:25:00,23.2,19.4,30.10,East,89,6.0,9.0,85,0.00,,,0.00,Wunderground v.1.15,2013-03-18 10:25:00,
2013-03-18 06:28:00,23.2,19.4,30.09,ENE,66,2.0,9.0,85,0.00,,,0.00,Wunderground v.1.15,2013-03-18 10:28:00,
2013-03-18 06:29:00,23.2,19.4,30.09,East,92,3.0,9.0,85,0.00,,,0.00,Wunderground v.1.15,2013-03-18 10:29:00,
2013-03-18 06:30:00,23.2,19.4,30.09,East,82,4.0,5.0,85,0.00,,,0.00,Wunderground v.1.15,2013-03-18 10:30:00,
2013-03-18 06:31:00,23.2,19.4,30.09,ENE,60,4.0,9.0,85,0.00,,,0.00,Wunderground v.1.15,2013-03-18 10:31:00,
2013-03-18 06:33:00,23.3,19.5,30.09,East,79,5.0,9.0,85,0.00,,,0.00,Wunderground v.1.15,2013-03-18 10:33:00,
2013-03-18 06:34:00,23.3,19.5,30.09,East,92,8.0,12.0,85,0.00,,,0.00,Wunderground v.1.15,2013-03-18 10:34:00,
2013-03-18 06:35:00,23.3,19.5,30.09,East,79,2.0,12.0,85,0.00,,,0.00,Wunderground v.1.15,2013-03-18 10:35:00,
2013-03-18 06:36:00,23.3,19.5,30.08,East,101,4.0,12.0,85,0.00,,,0.00,Wunderground v.1.15,2013-03-18 10:36:00,
2013-03-18 06:38:00,23.3,19.5,30.08,ENE,72,3.0,12.0,85,0.00,,,0.00,Wunderground v.1.15,2013-03-18 10:38:00,
2013-03-18 06:39:00,23.3,19.5,30.08,ENE,77,8.0,12.0,85,0.00,,,0.00,Wunderground v.1.15,2013-03-18 10:39:00,
2013-03-18 06:41:00,23.3,19.5,30.08,ESE,111,4.0,9.0,85,0.00,,,0.00,Wunderground v.1.15,2013-03-18 10:41:00,
2013-03-18 06:44:00,23.4,19.6,30.08,East,97,7.0,13.0,85,0.00,,,0.00,Wunderground v.1.15,2013-03-18 10:44:00,
2013-03-18 06:47:00,23.4,19.6,30.08,ENE,72,4.0,14.0,85,0.00,,,0.00,Wunderground v.1.15,2013-03-18 10:47:00,
2013-03-18 06:49:00,23.5,19.7,30.08,East,95,5.0,14.0,85,0.00,,,0.00,Wunderground v.1.15,2013-03-18 10:49:00,
2013-03-18 06:50:00,23.5,19.7,30.08,East,88,5.0,6.0,85,0.00,,,0.00,Wunderground v.1.15,2013-03-18 10:50:00,
2013-03-18 06:52:00,23.5,19.7,30.07,ENE,70,5.0,14.0,85,0.00,,,0.00,Wunderground v.1.15,2013-03-18 10:52:00,
2013-03-18 06:54:00,23.5,19.7,30.07,ENE,70,4.0,14.0,85,0.00,,,0.00,Wunderground v.1.15,2013-03-18 10:54:00,
2013-03-18 06:57:00,23.6,19.8,30.07,East,79,4.0,14.0,85,0.00,,,0.00,Wunderground v.1.15,2013-03-18 10:57:00,
2013-03-18 06:59:00,23.6,19.8,30.07,ENE,69,6.0,14.0,85,0.00,,,0.00,Wunderground v.1.15,2013-03-18 10:59:00,
2013-03-18 07:00:00,23.6,19.8,30.07,ENE,76,6.0,6.0,85,0.00,,,0.00,Wunderground v.1.15,2013-03-18 11:00:00,
2013-03-18 07:02:00,23.7,19.9,30.07,ENE,59,4.0,12.0,85,0.00,,,0.00,Wunderground v.1.15,2013-03-18 11:02:00,
2013-03-18 07:03:00,23.6,19.8,30.07,ENE,70,5.0,12.0,85,0.00,,,0.00,Wunderground v.1.15,2013-03-18 11:03:00,
2013-03-18 07:04:00,23.7,19.9,30.07,ENE,70,4.0,12.0,85,0.00,,,0.00,Wunderground v.1.15,2013-03-18 11:04:00,
2013-03-18 07:05:00,23.6,19.8,30.07,ENE,68,4.0,12.0,85,0.00,,,0.00,Wunderground v.1.15,2013-03-18 11:05:00,
2013-03-18 07:07:00,23.7,19.9,30.07,East,82,4.0,12.0,85,0.00,,,0.00,Wunderground v.1.15,2013-03-18 11:07:00,
2013-03-18 07:08:00,23.6,19.8,30.07,ENE,72,5.0,12.0,85,0.00,,,0.00,Wunderground v.1.15,2013-03-18 11:08:00,
2013-03-18 07:09:00,23.7,19.9,30.07,East,81,5.0,12.0,85,0.00,,,0.00,Wunderground v.1.15,2013-03-18 11:09:00,
2013-03-18 07:10:00,23.6,19.8,30.07,East,84,8.0,10.0,85,0.00,,,0.00,Wunderground v.1.15,2013-03-18 11:10:00,
2013-03-18 07:12:00,23.7,19.9,30.07,East,81,5.0,10.0,85,0.00,,,0.00,Wunderground v.1.15,2013-03-18 11:12:00,
2013-03-18 07:13:00,23.7,19.9,30.07,ENE,64,6.0,10.0,85,0.00,,,0.00,Wunderground v.1.15,2013-03-18 11:13:00,
2013-03-18 07:14:00,23.7,19.9,30.07,East,80,9.0,10.0,85,0.00,,,0.00,Wunderground v.1.15,2013-03-18 11:14:00,
2013-03-18 07:15:00,23.7,19.9,30.07,East,95,5.0,10.0,85,0.00,,,0.00,Wunderground v.1.15,2013-03-18 11:15:00,
2013-03-18 07:17:00,23.7,19.9,30.07,East,79,8.0,11.0,85,0.00,,,0.00,Wunderground v.1.15,2013-03-18 11:17:00,
2013-03-18 07:18:00,23.7,19.9,30.07,East,79,4.0,16.0,85,0.00,,,0.00,Wunderground v.1.15,2013-03-18 11:18:00,
2013-03-18 07:19:00,23.7,19.9,30.07,East,101,6.0,6.0,85,0.00,,,0.00,Wunderground v.1.15,2013-03-18 11:19:00,
2013-03-18 07:20:00,23.7,19.9,30.07,East,95,7.0,9.0,85,0.00,,,0.00,Wunderground v.1.15,2013-03-18 11:20:00,
2013-03-18 07:23:00,23.8,19.9,30.07,East,96,5.0,11.0,85,0.00,,,0.00,Wunderground v.1.15,2013-03-18 11:23:00,
2013-03-18 07:24:00,23.8,19.9,30.07,East,81,2.0,11.0,85,0.00,,,0.00,Wunderground v.1.15,2013-03-18 11:24:00,
2013-03-18 07:25:00,23.8,19.9,30.07,ESE,102,7.0,11.0,85,0.00,,,0.00,Wunderground v.1.15,2013-03-18 11:25:00,
2013-03-18 07:28:00,23.8,19.9,30.07,ESE,117,5.0,11.0,85,0.00,,,0.00,Wunderground v.1.15,2013-03-18 11:28:00,
2013-03-18 07:30:00,23.8,19.9,30.07,SE,141,9.0,10.0,85,0.00,,,0.00,Wunderground v.1.15,2013-03-18 11:30:00,
2013-03-18 07:33:00,23.8,19.9,30.07,East,98,4.0,10.0,85,0.00,,,0.00,Wunderground v.1.15,2013-03-18 11:33:00,
2013-03-18 07:35:00,23.8,19.9,30.07,ENE,74,6.0,10.0,85,0.00,,,0.00,Wunderground v.1.15,2013-03-18 11:35:00,
2013-03-18 07:38:00,23.8,19.9,30.06,ENE,75,3.0,10.0,85,0.00,,,0.00,Wunderground v.1.15,2013-03-18 11:38:00,
2013-03-18 07:40:00,23.9,19.8,30.06,East,84,3.0,7.0,84,0.00,,,0.00,Wunderground v.1.15,2013-03-18 11:40:00,
2013-03-18 07:43:00,23.9,19.8,30.06,East,94,6.0,9.0,84,0.00,,,0.00,Wunderground v.1.15,2013-03-18 11:43:00,
2013-03-18 07:45:00,23.9,19.8,30.06,East,86,6.0,11.0,84,0.00,,,0.00,Wunderground v.1.15,2013-03-18 11:45:00,
2013-03-18 07:48:00,24.0,19.9,30.05,East,79,4.0,11.0,84,0.00,,,0.00,Wunderground v.1.15,2013-03-18 11:48:00,
2013-03-18 07:49:00,24.0,19.9,30.05,East,81,4.0,11.0,84,0.00,,,0.00,Wunderground v.1.15,2013-03-18 11:49:00,
2013-03-18 07:50:00,24.0,19.9,30.06,East,100,10.0,12.0,84,0.00,,,0.00,Wunderground v.1.15,2013-03-18 11:50:00,
2013-03-18 07:51:00,24.0,19.9,30.05,East,80,8.0,12.0,84,0.00,,,0.00,Wunderground v.1.15,2013-03-18 11:51:00,
2013-03-18 07:54:00,24.1,20.0,30.06,East,86,10.0,12.0,84,0.00,,,0.00,Wunderground v.1.15,2013-03-18 11:54:00,
2013-03-18 07:55:00,24.1,20.0,30.05,East,89,5.0,12.0,84,0.00,,,0.00,Wunderground v.1.15,2013-03-18 11:55:00,
2013-03-18 07:57:00,24.2,20.1,30.05,East,101,5.0,12.0,84,0.00,,,0.00,Wunderground v.1.15,2013-03-18 11:57:00,
2013-03-18 07:59:00,24.2,19.8,30.05,East,93,10.0,12.0,83,0.00,,,0.00,Wunderground v.1.15,2013-03-18 11:59:00,
2013-03-18 08:00:00,24.3,19.9,30.05,East,91,11.0,11.0,83,0.00,,,0.00,Wunderground v.1.15,2013-03-18 12:00:00,
2013-03-18 08:01:00,24.3,19.9,30.05,ENE,72,7.0,12.0,83,0.00,,,0.00,Wunderground v.1.15,2013-03-18 12:01:00,
2013-03-18 08:03:00,24.3,19.9,30.05,ENE,70,3.0,12.0,83,0.00,,,0.00,Wunderground v.1.15,2013-03-18 12:03:00,
2013-03-18 08:05:00,24.3,19.9,30.05,East,86,10.0,16.0,83,0.00,,,0.00,Wunderground v.1.15,2013-03-18 12:05:00,
2013-03-18 08:07:00,24.3,19.9,30.05,East,95,5.0,16.0,83,0.00,,,0.00,Wunderground v.1.15,2013-03-18 12:07:00,
2013-03-18 08:08:00,24.4,20.0,30.05,East,79,6.0,16.0,83,0.00,,,0.00,Wunderground v.1.15,2013-03-18 12:08:00,
2013-03-18 08:10:00,24.4,20.0,30.05,East,98,5.0,7.0,83,0.00,,,0.00,Wunderground v.1.15,2013-03-18 12:10:00,
2013-03-18 08:12:00,24.4,19.7,30.05,ENE,71,7.0,12.0,82,0.00,,,0.00,Wunderground v.1.15,2013-03-18 12:12:00,
2013-03-18 08:13:00,24.4,19.7,30.05,East,96,4.0,12.0,82,0.00,,,0.00,Wunderground v.1.15,2013-03-18 12:13:00,
2013-03-18 08:15:00,24.4,20.0,30.04,East,97,4.0,12.0,83,0.00,,,0.00,Wunderground v.1.15,2013-03-18 12:15:00,
2013-03-18 08:18:00,24.5,19.8,30.04,East,87,7.0,12.0,82,0.00,,,0.00,Wunderground v.1.15,2013-03-18 12:18:00,
2013-03-18 08:20:00,24.5,19.8,30.04,East,86,4.0,10.0,82,0.00,,,0.00,Wunderground v.1.15,2013-03-18 12:20:00,
2013-03-18 08:21:00,24.5,19.8,30.04,East,88,7.0,10.0,82,0.00,,,0.00,Wunderground v.1.15,2013-03-18 12:21:00,
2013-03-18 08:23:00,24.6,19.9,30.04,East,96,12.0,12.0,82,0.00,,,0.00,Wunderground v.1.15,2013-03-18 12:23:00,
2013-03-18 08:24:00,24.6,19.9,30.04,East,82,7.0,13.0,82,0.00,,,0.00,Wunderground v.1.15,2013-03-18 12:24:00,
2013-03-18 08:25:00,24.6,19.9,30.04,ENE,63,9.0,13.0,82,0.00,,,0.00,Wunderground v.1.15,2013-03-18 12:25:00,
2013-03-18 08:26:00,24.6,19.9,30.04,ESE,111,7.0,13.0,82,0.00,,,0.00,Wunderground v.1.15,2013-03-18 12:26:00,
2013-03-18 08:28:00,24.6,19.9,30.04,ENE,61,8.0,13.0,82,0.00,,,0.00,Wunderground v.1.15,2013-03-18 12:28:00,
2013-03-18 08:29:00,24.6,19.9,30.04,ENE,72,3.0,13.0,82,0.00,,,0.00,Wunderground v.1.15,2013-03-18 12:29:00,
2013-03-18 08:30:00,24.7,20.0,30.04,ENE,63,4.0,7.0,82,0.00,,,0.00,Wunderground v.1.15,2013-03-18 12:30:00,
2013-03-18 08:31:00,24.7,20.0,30.04,East,89,2.0,7.0,82,0.00,,,0.00,Wunderground v.1.15,2013-03-18 12:31:00,
2013-03-18 08:33:00,24.7,20.0,30.04,ENE,74,4.0,8.0,82,0.00,,,0.00,Wunderground v.1.15,2013-03-18 12:33:00,
2013-03-18 08:34:00,24.7,20.0,30.03,ENE,64,6.0,10.0,82,0.00,,,0.00,Wunderground v.1.15,2013-03-18 12:34:00,
2013-03-18 08:36:00,24.7,20.0,30.04,ESE,102,7.0,10.0,82,0.00,,,0.00,Wunderground v.1.15,2013-03-18 12:36:00,
2013-03-18 08:37:00,24.7,20.0,30.04,East,98,11.0,12.0,82,0.00,,,0.00,Wunderground v.1.15,2013-03-18 12:37:00,
2013-03-18 08:38:00,24.7,19.7,30.04,East,84,3.0,15.0,81,0.00,,,0.00,Wunderground v.1.15,2013-03-18 12:38:00,
2013-03-18 08:40:00,24.8,19.8,30.04,ENE,63,3.0,6.0,81,0.00,,,0.00,Wunderground v.1.15,2013-03-18 12:40:00,
2013-03-18 08:41:00,24.8,19.8,30.03,East,80,4.0,9.0,81,0.00,,,0.00,Wunderground v.1.15,2013-03-18 12:41:00,
2013-03-18 08:43:00,24.8,19.8,30.03,East,84,4.0,9.0,81,0.00,,,0.00,Wunderground v.1.15,2013-03-18 12:43:00,
2013-03-18 08:44:00,24.8,19.8,30.04,NE,45,3.0,9.0,81,0.00,,,0.00,Wunderground v.1.15,2013-03-18 12:44:00,
2013-03-18 08:45:00,24.8,19.8,30.03,ENE,64,7.0,9.0,81,0.00,,,0.00,Wunderground v.1.15,2013-03-18 12:45:00,
2013-03-18 08:46:00,24.8,19.8,30.03,East,87,5.0,9.0,81,0.00,,,0.00,Wunderground v.1.15,2013-03-18 12:46:00,
2013-03-18 08:48:00,24.9,19.9,30.03,ENE,66,3.0,9.0,81,0.00,,,0.00,Wunderground v.1.15,2013-03-18 12:48:00,
2013-03-18 08:49:00,24.9,19.9,30.03,ENE,60,5.0,9.0,81,0.00,,,0.00,Wunderground v.1.15,2013-03-18 12:49:00,
2013-03-18 08:50:00,24.9,19.9,30.03,East,96,4.0,6.0,81,0.00,,,0.00,Wunderground v.1.15,2013-03-18 12:50:00,
2013-03-18 08:51:00,24.9,19.9,30.03,ENE,78,5.0,7.0,81,0.00,,,0.00,Wunderground v.1.15,2013-03-18 12:51:00,
2013-03-18 08:53:00,24.9,19.9,30.03,ENE,77,6.0,11.0,81,0.00,,,0.00,Wunderground v.1.15,2013-03-18 12:53:00,
2013-03-18 08:54:00,25.0,20.0,30.03,East,96,9.0,11.0,81,0.00,,,0.00,Wunderground v.1.15,2013-03-18 12:54:00,
2013-03-18 08:55:00,25.0,20.0,30.03,ENE,76,5.0,11.0,81,0.00,,,0.00,Wunderground v.1.15,2013-03-18 12:55:00,
2013-03-18 08:57:00,25.0,20.0,30.03,NE,52,6.0,11.0,81,0.00,,,0.00,Wunderground v.1.15,2013-03-18 12:57:00,
2013-03-18 08:59:00,25.0,20.0,30.03,East,87,9.0,14.0,81,0.00,,,0.00,Wunderground v.1.15,2013-03-18 12:59:00,
2013-03-18 09:00:00,25.0,20.0,30.03,East,84,5.0,9.0,81,0.00,,,0.00,Wunderground v.1.15,2013-03-18 13:00:00,
2013-03-18 09:02:00,25.1,20.1,30.02,East,92,7.0,10.0,81,0.00,,,0.00,Wunderground v.1.15,2013-03-18 13:02:00,
2013-03-18 09:04:00,25.1,20.1,30.02,East,79,10.0,10.0,81,0.00,,,0.00,Wunderground v.1.15,2013-03-18 13:04:00,
2013-03-18 09:05:00,25.1,20.1,30.02,East,82,5.0,10.0,81,0.00,,,0.00,Wunderground v.1.15,2013-03-18 13:05:00,
2013-03-18 09:07:00,25.1,20.1,30.02,ENE,72,4.0,11.0,81,0.00,,,0.00,Wunderground v.1.15,2013-03-18 13:07:00,
2013-03-18 09:09:00,25.2,19.9,30.02,East,96,8.0,11.0,80,0.00,,,0.00,Wunderground v.1.15,2013-03-18 13:09:00,
2013-03-18 09:10:00,25.2,19.9,30.02,East,88,9.0,10.0,80,0.00,,,0.00,Wunderground v.1.15,2013-03-18 13:10:00,
2013-03-18 09:13:00,25.3,20.3,30.01,ENE,71,7.0,10.0,81,0.00,,,0.00,Wunderground v.1.15,2013-03-18 13:13:00,
2013-03-18 09:14:00,25.3,20.0,30.01,NE,52,5.0,10.0,80,0.00,,,0.00,Wunderground v.1.15,2013-03-18 13:14:00,
2013-03-18 09:15:00,25.3,20.0,30.01,ENE,69,5.0,10.0,80,0.00,,,0.00,Wunderground v.1.15,2013-03-18 13:15:00,
2013-03-18 09:18:00,25.4,20.1,30.01,ESE,104,5.0,10.0,80,0.00,,,0.00,Wunderground v.1.15,2013-03-18 13:18:00,
2013-03-18 09:19:00,25.4,20.1,30.01,ENE,72,8.0,10.0,80,0.00,,,0.00,Wunderground v.1.15,2013-03-18 13:19:00,
2013-03-18 09:20:00,25.4,20.1,30.01,East,87,4.0,6.0,80,0.00,,,0.00,Wunderground v.1.15,2013-03-18 13:20:00,
2013-03-18 09:23:00,25.6,20.3,30.01,East,80,5.0,9.0,80,0.00,,,0.00,Wunderground v.1.15,2013-03-18 13:23:00,
2013-03-18 09:25:00,25.6,20.3,30.01,East,98,5.0,13.0,80,0.00,,,0.00,Wunderground v.1.15,2013-03-18 13:25:00,
2013-03-18 09:28:00,25.7,20.4,30.00,ENE,58,3.0,13.0,80,0.00,,,0.00,Wunderground v.1.15,2013-03-18 13:28:00,
2013-03-18 09:30:00,25.7,20.4,30.00,ENE,59,4.0,6.0,80,0.00,,,0.00,Wunderground v.1.15,2013-03-18 13:30:00,
2013-03-18 09:31:00,25.7,20.4,30.00,East,85,4.0,7.0,80,0.00,,,0.00,Wunderground v.1.15,2013-03-18 13:31:00,
2013-03-18 09:33:00,25.8,20.5,30.00,East,96,4.0,7.0,80,0.00,,,0.00,Wunderground v.1.15,2013-03-18 13:33:00,
2013-03-18 09:35:00,25.9,20.6,29.99,ENE,78,4.0,7.0,80,0.00,,,0.00,Wunderground v.1.15,2013-03-18 13:35:00,
2013-03-18 09:36:00,25.9,20.6,29.99,East,80,3.0,7.0,80,0.00,,,0.00,Wunderground v.1.15,2013-03-18 13:36:00,
2013-03-18 09:38:00,25.9,20.6,29.99,ESE,105,8.0,13.0,80,0.00,,,0.00,Wunderground v.1.15,2013-03-18 13:38:00,
2013-03-18 09:40:00,25.9,20.6,29.98,East,82,6.0,6.0,80,0.00,,,0.00,Wunderground v.1.15,2013-03-18 13:40:00,
2013-03-18 09:41:00,25.9,20.6,29.98,East,93,6.0,9.0,80,0.00,,,0.00,Wunderground v.1.15,2013-03-18 13:41:00,
2013-03-18 09:43:00,26.0,20.7,29.99,ENE,69,3.0,9.0,80,0.00,,,0.00,Wunderground v.1.15,2013-03-18 13:43:00,
2013-03-18 09:45:00,26.1,20.8,29.98,ENE,70,5.0,13.0,80,0.00,,,0.00,Wunderground v.1.15,2013-03-18 13:45:00,
2013-03-18 09:46:00,26.1,20.8,29.98,East,101,5.0,13.0,80,0.00,,,0.00,Wunderground v.1.15,2013-03-18 13:46:00,
2013-03-18 09:49:00,26.1,20.8,29.98,ENE,59,6.0,13.0,80,0.00,,,0.00,Wunderground v.1.15,2013-03-18 13:49:00,
2013-03-18 09:50:00,26.2,20.9,29.98,East,96,9.0,10.0,80,0.00,,,0.00,Wunderground v.1.15,2013-03-18 13:50:00,
2013-03-18 09:52:00,26.2,20.9,29.98,ENE,72,6.0,12.0,80,0.00,,,0.00,Wunderground v.1.15,2013-03-18 13:52:00,
2013-03-18 09:53:00,26.3,21.0,29.98,East,89,10.0,12.0,80,0.00,,,0.00,Wunderground v.1.15,2013-03-18 13:53:00,
2013-03-18 09:55:00,26.3,21.0,29.97,East,82,7.0,13.0,80,0.00,,,0.00,Wunderground v.1.15,2013-03-18 13:55:00,
2013-03-18 09:56:00,26.3,21.0,29.97,East,84,6.0,13.0,80,0.00,,,0.00,Wunderground v.1.15,2013-03-18 13:56:00,
2013-03-18 09:57:00,26.3,21.0,29.97,East,96,6.0,13.0,80,0.00,,,0.00,Wunderground v.1.15,2013-03-18 13:57:00,
2013-03-18 09:59:00,26.4,21.1,29.97,ENE,77,4.0,13.0,80,0.00,,,0.00,Wunderground v.1.15,2013-03-18 13:59:00,
2013-03-18 10:00:00,26.4,21.1,29.97,East,90,12.0,13.0,80,0.00,,,0.00,Wunderground v.1.15,2013-03-18 14:00:00,
2013-03-18 10:02:00,26.5,21.2,29.97,ESE,102,13.0,13.0,80,0.00,,,0.00,Wunderground v.1.15,2013-03-18 14:02:00,
2013-03-18 10:04:00,26.5,21.2,29.97,East,94,10.0,13.0,80,0.00,,,0.00,Wunderground v.1.15,2013-03-18 14:04:00,
2013-03-18 10:05:00,26.5,21.2,29.97,East,82,4.0,13.0,80,0.00,,,0.00,Wunderground v.1.15,2013-03-18 14:05:00,
2013-03-18 10:07:00,26.5,21.2,29.96,ENE,69,5.0,13.0,80,0.00,,,0.00,Wunderground v.1.15,2013-03-18 14:07:00,
2013-03-18 10:09:00,26.6,21.3,29.96,ENE,76,5.0,13.0,80,0.00,,,0.00,Wunderground v.1.15,2013-03-18 14:09:00,
2013-03-18 10:10:00,26.6,21.3,29.96,NE,53,5.0,11.0,80,0.00,,,0.00,Wunderground v.1.15,2013-03-18 14:10:00,
2013-03-18 10:13:00,26.6,21.3,29.96,ESE,102,9.0,11.0,80,0.00,,,0.00,Wunderground v.1.15,2013-03-18 14:13:00,
2013-03-18 10:14:00,26.7,21.4,29.96,East,88,7.0,15.0,80,0.00,,,0.00,Wunderground v.1.15,2013-03-18 14:14:00,
2013-03-18 10:16:00,26.7,21.4,29.96,ENE,68,3.0,15.0,80,0.00,,,0.00,Wunderground v.1.15,2013-03-18 14:16:00,
2013-03-18 10:18:00,26.7,21.4,29.96,East,89,4.0,15.0,80,0.00,,,0.00,Wunderground v.1.15,2013-03-18 14:18:00,
2013-03-18 10:19:00,26.7,21.4,29.96,ENE,62,7.0,15.0,80,0.00,,,0.00,Wunderground v.1.15,2013-03-18 14:19:00,
2013-03-18 10:21:00,26.7,21.4,29.96,SE,128,5.0,13.0,80,0.00,,,0.00,Wunderground v.1.15,2013-03-18 14:21:00,
2013-03-18 10:23:00,26.8,21.5,29.96,East,83,7.0,13.0,80,0.00,,,0.00,Wunderground v.1.15,2013-03-18 14:23:00,
2013-03-18 10:24:00,26.8,21.5,29.96,East,91,4.0,13.0,80,0.00,,,0.00,Wunderground v.1.15,2013-03-18 14:24:00,
2013-03-18 10:26:00,26.9,21.6,29.96,East,89,8.0,13.0,80,0.00,,,0.00,Wunderground v.1.15,2013-03-18 14:26:00,
2013-03-18 10:28:00,26.9,21.6,29.95,East,79,7.0,13.0,80,0.00,,,0.00,Wunderground v.1.15,2013-03-18 14:28:00,
2013-03-18 10:29:00,26.9,21.6,29.95,East,86,4.0,13.0,80,0.00,,,0.00,Wunderground v.1.15,2013-03-18 14:29:00,
2013-03-18 10:32:00,27.0,21.7,29.95,East,86,4.0,11.0,80,0.00,,,0.00,Wunderground v.1.15,2013-03-18 14:32:00,
2013-03-18 10:33:00,27.0,21.7,29.95,ENE,64,3.0,11.0,80,0.00,,,0.00,Wunderground v.1.15,2013-03-18 14:33:00,
2013-03-18 10:34:00,27.0,21.7,29.95,East,96,7.0,11.0,80,0.00,,,0.00,Wunderground v.1.15,2013-03-18 14:34:00,
2013-03-18 10:37:00,27.1,21.7,29.95,ESE,103,12.0,12.0,80,0.00,,,0.00,Wunderground v.1.15,2013-03-18 14:37:00,
2013-03-18 10:38:00,27.1,21.7,29.95,ENE,76,4.0,13.0,80,0.00,,,0.00,Wunderground v.1.15,2013-03-18 14:38:00,
2013-03-18 10:39:00,27.1,21.7,29.95,East,83,8.0,13.0,80,0.00,,,0.00,Wunderground v.1.15,2013-03-18 14:39:00,
2013-03-18 10:43:00,27.2,21.8,29.94,East,82,4.0,11.0,80,0.00,,,0.00,Wunderground v.1.15,2013-03-18 14:43:00,
2013-03-18 10:44:00,27.3,21.9,29.94,East,94,9.0,11.0,80,0.00,,,0.00,Wunderground v.1.15,2013-03-18 14:44:00,
2013-03-18 10:49:00,27.4,22.0,29.94,East,89,8.0,14.0,80,0.00,,,0.00,Wunderground v.1.15,2013-03-18 14:49:00,
2013-03-18 10:50:00,27.4,22.0,29.93,East,87,11.0,12.0,80,0.00,,,0.00,Wunderground v.1.15,2013-03-18 14:50:00,
2013-03-18 10:54:00,27.5,22.1,29.93,ESE,109,7.0,12.0,80,0.00,,,0.00,Wunderground v.1.15,2013-03-18 14:54:00,
2013-03-18 10:55:00,27.6,22.5,29.93,ESE,108,7.0,12.0,81,0.00,,,0.00,Wunderground v.1.15,2013-03-18 14:55:00,
2013-03-18 10:59:00,27.6,22.5,29.93,East,84,10.0,12.0,81,0.00,,,0.00,Wunderground v.1.15,2013-03-18 14:59:00,
2013-03-18 11:00:00,27.7,22.6,29.93,SE,138,8.0,11.0,81,0.00,,,0.00,Wunderground v.1.15,2013-03-18 15:00:00,
2013-03-18 11:04:00,27.8,22.7,29.93,ENE,77,4.0,11.0,81,0.00,,,0.00,Wunderground v.1.15,2013-03-18 15:04:00,
2013-03-18 11:05:00,27.8,22.7,29.92,ENE,72,6.0,11.0,81,0.00,,,0.00,Wunderground v.1.15,2013-03-18 15:05:00,
2013-03-18 11:09:00,27.9,23.1,29.92,ENE,67,5.0,11.0,82,0.00,,,0.00,Wunderground v.1.15,2013-03-18 15:09:00,
2013-03-18 11:10:00,27.9,23.1,29.92,East,83,6.0,6.0,82,0.00,,,0.00,Wunderground v.1.15,2013-03-18 15:10:00,
2013-03-18 11:14:00,28.0,23.2,29.92,ENE,68,2.0,12.0,82,0.00,,,0.00,Wunderground v.1.15,2013-03-18 15:14:00,
2013-03-18 11:15:00,28.0,23.2,29.92,East,82,5.0,12.0,82,0.00,,,0.00,Wunderground v.1.15,2013-03-18 15:15:00,
2013-03-18 11:16:00,28.0,23.2,29.92,East,98,5.0,12.0,82,0.00,,,0.00,Wunderground v.1.15,2013-03-18 15:16:00,
2013-03-18 11:19:00,28.1,23.6,29.92,ESE,103,6.0,12.0,83,0.00,,,0.00,Wunderground v.1.15,2013-03-18 15:19:00,
2013-03-18 11:20:00,28.1,23.6,29.92,ENE,72,3.0,6.0,83,0.00,,,0.00,Wunderground v.1.15,2013-03-18 15:20:00,
2013-03-18 11:22:00,28.2,23.7,29.92,East,81,4.0,8.0,83,0.00,,,0.00,Wunderground v.1.15,2013-03-18 15:22:00,
2013-03-18 11:24:00,28.2,23.7,29.92,East,91,5.0,12.0,83,0.00,,,0.00,Wunderground v.1.15,2013-03-18 15:24:00,
2013-03-18 11:25:00,28.3,23.8,29.92,ENE,67,4.0,12.0,83,0.00,,,0.00,Wunderground v.1.15,2013-03-18 15:25:00,
2013-03-18 11:27:00,28.4,23.9,29.91,SE,138,5.0,12.0,83,0.00,,,0.00,Wunderground v.1.15,2013-03-18 15:27:00,
2013-03-18 11:30:00,28.6,24.1,29.91,East,84,3.0,5.0,83,0.00,,,0.00,Wunderground v.1.15,2013-03-18 15:30:00,
2013-03-18 11:32:00,28.8,24.3,29.91,East,79,5.0,9.0,83,0.00,,,0.00,Wunderground v.1.15,2013-03-18 15:32:00,
2013-03-18 11:35:00,29.0,24.5,29.91,NE,50,5.0,9.0,83,0.00,,,0.00,Wunderground v.1.15,2013-03-18 15:35:00,
2013-03-18 11:37:00,29.1,24.6,29.91,ENE,75,4.0,9.0,83,0.00,,,0.00,Wunderground v.1.15,2013-03-18 15:37:00,
2013-03-18 11:40:00,29.2,24.7,29.90,East,87,3.0,8.0,83,0.00,,,0.00,Wunderground v.1.15,2013-03-18 15:40:00,
2013-03-18 11:42:00,29.3,25.1,29.90,East,98,9.0,11.0,84,0.00,,,0.00,Wunderground v.1.15,2013-03-18 15:42:00,
2013-03-18 11:45:00,29.4,25.2,29.89,ENE,68,6.0,11.0,84,0.00,,,0.00,Wunderground v.1.15,2013-03-18 15:45:00,
2013-03-18 11:47:00,29.4,25.2,29.89,East,98,4.0,11.0,84,0.00,,,0.00,Wunderground v.1.15,2013-03-18 15:47:00,
2013-03-18 11:50:00,29.6,25.6,29.88,East,98,14.0,14.0,85,0.00,,,0.00,Wunderground v.1.15,2013-03-18 15:50:00,
2013-03-18 11:52:00,29.6,25.6,29.88,East,90,9.0,14.0,85,0.00,,,0.00,Wunderground v.1.15,2013-03-18 15:52:00,
2013-03-18 11:55:00,29.8,25.8,29.89,ESE,119,4.0,14.0,85,0.00,,,0.00,Wunderground v.1.15,2013-03-18 15:55:00,
2013-03-18 11:58:00,29.9,25.7,29.88,ENE,69,4.0,14.0,84,0.00,,,0.00,Wunderground v.1.15,2013-03-18 15:58:00,
2013-03-18 12:00:00,30.0,26.0,29.88,East,98,7.0,9.0,85,0.00,,,0.00,Wunderground v.1.15,2013-03-18 16:00:00,
2013-03-18 12:03:00,30.0,25.8,29.88,ENE,76,4.0,10.0,84,0.00,,,0.00,Wunderground v.1.15,2013-03-18 16:03:00,
2013-03-18 12:05:00,30.2,25.9,29.88,NE,50,6.0,10.0,84,0.00,,,0.00,Wunderground v.1.15,2013-03-18 16:05:00,
2013-03-18 12:06:00,30.2,25.9,29.88,ESE,114,6.0,10.0,84,0.00,,,0.00,Wunderground v.1.15,2013-03-18 16:06:00,
2013-03-18 12:08:00,30.3,26.0,29.88,ENE,63,4.0,10.0,84,0.00,,,0.00,Wunderground v.1.15,2013-03-18 16:08:00,
2013-03-18 12:10:00,30.4,26.1,29.87,East,88,11.0,11.0,84,0.00,,,0.00,Wunderground v.1.15,2013-03-18 16:10:00,
2013-03-18 12:11:00,30.3,26.0,29.87,East,84,14.0,14.0,84,0.00,,,0.00,Wunderground v.1.15,2013-03-18 16:11:00,
2013-03-18 12:12:00,30.3,26.0,29.87,East,84,3.0,14.0,84,0.00,,,0.00,Wunderground v.1.15,2013-03-18 16:12:00,
2013-03-18 12:13:00,30.3,26.0,29.87,East,89,11.0,14.0,84,0.00,,,0.00,Wunderground v.1.15,2013-03-18 16:13:00,
2013-03-18 12:15:00,30.2,25.9,29.88,ESE,114,7.0,14.0,84,0.00,,,0.00,Wunderground v.1.15,2013-03-18 16:15:00,
2013-03-18 12:16:00,30.2,25.9,29.88,ENE,70,3.0,14.0,84,0.00,,,0.00,Wunderground v.1.15,2013-03-18 16:16:00,
2013-03-18 12:17:00,30.2,25.9,29.87,NNE,13,7.0,14.0,84,0.00,,,0.00,Wunderground v.1.15,2013-03-18 16:17:00,
2013-03-18 12:18:00,30.2,26.2,29.87,ESE,105,5.0,14.0,85,0.00,,,0.00,Wunderground v.1.15,2013-03-18 16:18:00,
2013-03-18 12:20:00,30.1,26.1,29.87,East,95,4.0,8.0,85,0.00,,,0.00,Wunderground v.1.15,2013-03-18 16:20:00,
2013-03-18 12:21:00,30.1,26.1,29.87,NE,43,4.0,8.0,85,0.00,,,0.00,Wunderground v.1.15,2013-03-18 16:21:00,
2013-03-18 12:22:00,30.1,26.1,29.87,NE,45,3.0,8.0,85,0.00,,,0.00,Wunderground v.1.15,2013-03-18 16:22:00,
2013-03-18 12:23:00,30.1,26.1,29.87,SE,143,7.0,9.0,85,0.00,,,0.00,Wunderground v.1.15,2013-03-18 16:23:00,
2013-03-18 12:26:00,30.1,26.1,29.87,East,90,3.0,9.0,85,0.00,,,0.00,Wunderground v.1.15,2013-03-18 16:26:00,
2013-03-18 12:27:00,30.1,26.1,29.87,East,96,7.0,10.0,85,0.00,,,0.00,Wunderground v.1.15,2013-03-18 16:27:00,
2013-03-18 12:29:00,30.1,26.1,29.87,ENE,64,2.0,10.0,85,0.00,,,0.00,Wunderground v.1.15,2013-03-18 16:29:00,
2013-03-18 12:31:00,30.1,26.1,29.87,ESE,105,7.0,7.0,85,0.00,,,0.00,Wunderground v.1.15,2013-03-18 16:31:00,
2013-03-18 12:32:00,30.1,26.1,29.87,East,83,2.0,7.0,85,0.00,,,0.00,Wunderground v.1.15,2013-03-18 16:32:00,
2013-03-18 12:35:00,30.2,26.2,29.87,East,94,5.0,10.0,85,0.00,,,0.00,Wunderground v.1.15,2013-03-18 16:35:00,
2013-03-18 12:36:00,30.2,26.2,29.87,ENE,72,5.0,10.0,85,0.00,,,0.00,Wunderground v.1.15,2013-03-18 16:36:00,
2013-03-18 12:37:00,30.2,25.9,29.87,ENE,76,3.0,10.0,84,0.00,,,0.00,Wunderground v.1.15,2013-03-18 16:37:00,
2013-03-18 12:38:00,30.2,25.9,29.87,ENE,67,5.0,10.0,84,0.00,,,0.00,Wunderground v.1.15,2013-03-18 16:38:00,
2013-03-18 12:40:00,30.2,25.9,29.87,East,80,6.0,10.0,84,0.00,,,0.00,Wunderground v.1.15,2013-03-18 16:40:00,
2013-03-18 12:42:00,30.1,25.8,29.87,ESE,105,4.0,11.0,84,0.00,,,0.00,Wunderground v.1.15,2013-03-18 16:42:00,
2013-03-18 12:43:00,30.1,25.8,29.87,East,89,2.0,11.0,84,0.00,,,0.00,Wunderground v.1.15,2013-03-18 16:43:00,
2013-03-18 12:45:00,30.1,26.1,29.87,East,83,10.0,11.0,85,0.00,,,0.00,Wunderground v.1.15,2013-03-18 16:45:00,
2013-03-18 12:47:00,30.0,26.0,29.87,East,84,4.0,11.0,85,0.00,,,0.00,Wunderground v.1.15,2013-03-18 16:47:00,
2013-03-18 12:48:00,30.0,26.0,29.87,ENE,77,4.0,11.0,85,0.00,,,0.00,Wunderground v.1.15,2013-03-18 16:48:00,
2013-03-18 12:50:00,30.0,26.0,29.87,ENE,69,5.0,6.0,85,0.00,,,0.00,Wunderground v.1.15,2013-03-18 16:50:00,
2013-03-18 12:52:00,30.0,26.3,29.87,East,95,3.0,8.0,86,0.00,,,0.00,Wunderground v.1.15,2013-03-18 16:52:00,
2013-03-18 12:53:00,30.0,26.0,29.87,ENE,60,3.0,8.0,85,0.00,,,0.00,Wunderground v.1.15,2013-03-18 16:53:00,
2013-03-18 12:55:00,30.0,26.3,29.87,South,181,4.0,8.0,86,0.00,,,0.00,Wunderground v.1.15,2013-03-18 16:55:00,
2013-03-18 12:57:00,30.0,26.3,29.87,ENE,69,2.0,8.0,86,0.00,,,0.00,Wunderground v.1.15,2013-03-18 16:57:00,
2013-03-18 12:58:00,30.0,26.3,29.87,East,93,6.0,9.0,86,0.00,,,0.00,Wunderground v.1.15,2013-03-18 16:58:00,
2013-03-18 13:02:00,30.0,26.3,29.87,East,81,4.0,10.0,86,0.00,,,0.00,Wunderground v.1.15,2013-03-18 17:02:00,
2013-03-18 13:03:00,29.9,26.2,29.86,East,84,12.0,12.0,86,0.00,,,0.00,Wunderground v.1.15,2013-03-18 17:03:00,
2013-03-18 13:07:00,29.9,26.2,29.86,East,81,4.0,12.0,86,0.00,,,0.00,Wunderground v.1.15,2013-03-18 17:07:00,
2013-03-18 13:08:00,29.9,26.2,29.86,NE,53,4.0,12.0,86,0.00,,,0.00,Wunderground v.1.15,2013-03-18 17:08:00,
2013-03-18 13:09:00,30.0,26.6,29.86,East,85,7.0,12.0,87,0.00,,,0.00,Wunderground v.1.15,2013-03-18 17:09:00,
2013-03-18 13:12:00,30.0,26.6,29.86,ENE,70,5.0,10.0,87,0.00,,,0.00,Wunderground v.1.15,2013-03-18 17:12:00,
2013-03-18 13:13:00,29.9,26.5,29.85,East,84,5.0,13.0,87,0.00,,,0.00,Wunderground v.1.15,2013-03-18 17:13:00,
2013-03-18 13:14:00,29.9,26.5,29.85,ENE,66,4.0,13.0,87,0.00,,,0.00,Wunderground v.1.15,2013-03-18 17:14:00,
2013-03-18 13:17:00,29.8,26.4,29.85,East,90,6.0,13.0,87,0.00,,,0.00,Wunderground v.1.15,2013-03-18 17:17:00,
2013-03-18 13:18:00,29.8,26.7,29.85,East,84,6.0,13.0,88,0.00,,,0.00,Wunderground v.1.15,2013-03-18 17:18:00,
2013-03-18 13:19:00,29.8,26.7,29.85,ESE,117,4.0,13.0,88,0.00,,,0.00,Wunderground v.1.15,2013-03-18 17:19:00,
2013-03-18 13:20:00,29.8,26.7,29.85,ENE,64,3.0,5.0,88,0.00,,,0.00,Wunderground v.1.15,2013-03-18 17:20:00,
2013-03-18 13:23:00,29.8,27.0,29.85,SE,134,1.0,5.0,89,0.00,,,0.00,Wunderground v.1.15,2013-03-18 17:23:00,
2013-03-18 13:24:00,29.9,27.1,29.85,ENE,69,2.0,6.0,89,0.00,,,0.00,Wunderground v.1.15,2013-03-18 17:24:00,
2013-03-18 13:25:00,29.9,27.1,29.85,East,90,4.0,6.0,89,0.00,,,0.00,Wunderground v.1.15,2013-03-18 17:25:00,
2013-03-18 13:28:00,29.9,27.1,29.84,ENE,77,3.0,8.0,89,0.00,,,0.00,Wunderground v.1.15,2013-03-18 17:28:00,
2013-03-18 13:29:00,29.9,27.1,29.84,ENE,75,3.0,8.0,89,0.00,,,0.00,Wunderground v.1.15,2013-03-18 17:29:00,
2013-03-18 13:30:00,29.9,27.1,29.84,ENE,68,3.0,4.0,89,0.00,,,0.00,Wunderground v.1.15,2013-03-18 17:30:00,
2013-03-18 13:33:00,29.8,27.0,29.84,East,97,5.0,8.0,89,0.00,,,0.00,Wunderground v.1.15,2013-03-18 17:33:00,
2013-03-18 13:34:00,29.8,27.2,29.84,ENE,75,4.0,8.0,90,0.00,,,0.00,Wunderground v.1.15,2013-03-18 17:34:00,
2013-03-18 13:35:00,29.8,27.2,29.84,South,190,7.0,8.0,90,0.00,,,0.00,Wunderground v.1.15,2013-03-18 17:35:00,
2013-03-18 13:38:00,29.8,27.2,29.83,ESE,104,6.0,10.0,90,0.00,,,0.00,Wunderground v.1.15,2013-03-18 17:38:00,
2013-03-18 13:39:00,29.8,27.2,29.83,ENE,69,5.0,10.0,90,0.00,,,0.00,Wunderground v.1.15,2013-03-18 17:39:00,
2013-03-18 13:40:00,29.8,27.2,29.83,ENE,72,4.0,8.0,90,0.00,,,0.00,Wunderground v.1.15,2013-03-18 17:40:00,
2013-03-18 13:41:00,29.8,27.2,29.82,ENE,75,4.0,8.0,90,0.00,,,0.00,Wunderground v.1.15,2013-03-18 17:41:00,
2013-03-18 13:43:00,29.8,27.2,29.82,East,91,4.0,8.0,90,0.00,,,0.00,Wunderground v.1.15,2013-03-18 17:43:00,
2013-03-18 13:44:00,29.8,27.2,29.82,ESE,108,3.0,8.0,90,0.00,,,0.00,Wunderground v.1.15,2013-03-18 17:44:00,
2013-03-18 13:45:00,29.8,27.5,29.82,East,87,2.0,8.0,91,0.00,,,0.00,Wunderground v.1.15,2013-03-18 17:45:00,
2013-03-18 13:46:00,29.9,27.6,29.83,West,263,2.0,8.0,91,0.00,,,0.00,Wunderground v.1.15,2013-03-18 17:46:00,
2013-03-18 13:48:00,29.9,27.6,29.82,East,79,6.0,9.0,91,0.00,,,0.00,Wunderground v.1.15,2013-03-18 17:48:00,
2013-03-18 13:49:00,29.9,27.6,29.82,SSE,155,3.0,9.0,91,0.00,,,0.00,Wunderground v.1.15,2013-03-18 17:49:00,
2013-03-18 13:50:00,29.9,27.6,29.83,East,94,2.0,4.0,91,0.00,,,0.00,Wunderground v.1.15,2013-03-18 17:50:00,
2013-03-18 13:52:00,29.9,27.6,29.83,ENE,62,4.0,6.0,91,0.00,,,0.00,Wunderground v.1.15,2013-03-18 17:52:00,
2013-03-18 13:53:00,29.9,27.6,29.83,ENE,76,1.0,7.0,91,0.00,,,0.00,Wunderground v.1.15,2013-03-18 17:53:00,
2013-03-18 13:54:00,29.9,27.6,29.83,ESE,103,2.0,7.0,91,0.00,,,0.00,Wunderground v.1.15,2013-03-18 17:54:00,
2013-03-18 13:57:00,29.9,27.6,29.82,ENE,70,2.0,8.0,91,0.00,,,0.00,Wunderground v.1.15,2013-03-18 17:57:00,
2013-03-18 13:59:00,30.0,27.7,29.82,East,79,5.0,8.0,91,0.00,,,0.00,Wunderground v.1.15,2013-03-18 17:59:00,
2013-03-18 14:02:00,30.0,28.0,29.82,ENE,67,4.0,6.0,92,0.00,,,0.00,Wunderground v.1.15,2013-03-18 18:02:00,
2013-03-18 14:04:00,30.0,28.0,29.82,ENE,74,5.0,8.0,92,0.00,,,0.00,Wunderground v.1.15,2013-03-18 18:04:00,
2013-03-18 14:05:00,30.0,28.0,29.82,ENE,62,2.0,8.0,92,0.00,,,0.00,Wunderground v.1.15,2013-03-18 18:05:00,
2013-03-18 14:07:00,30.1,28.1,29.81,ENE,58,4.0,8.0,92,0.00,,,0.00,Wunderground v.1.15,2013-03-18 18:07:00,
2013-03-18 14:08:00,30.1,28.1,29.81,ENE,73,4.0,8.0,92,0.00,,,0.00,Wunderground v.1.15,2013-03-18 18:08:00,
2013-03-18 14:09:00,30.0,28.0,29.81,East,84,6.0,8.0,92,0.00,,,0.00,Wunderground v.1.15,2013-03-18 18:09:00,
2013-03-18 14:10:00,30.1,28.1,29.81,East,79,5.0,8.0,92,0.00,,,0.00,Wunderground v.1.15,2013-03-18 18:10:00,
2013-03-18 14:13:00,30.0,28.0,29.80,ENE,71,3.0,12.0,92,0.00,,,0.00,Wunderground v.1.15,2013-03-18 18:13:00,
2013-03-18 14:14:00,30.1,28.1,29.79,ENE,71,5.0,13.0,92,0.00,,,0.00,Wunderground v.1.15,2013-03-18 18:14:00,
2013-03-18 14:15:00,30.0,28.0,29.79,ENE,74,3.0,13.0,92,0.00,,,0.00,Wunderground v.1.15,2013-03-18 18:15:00,
2013-03-18 14:18:00,30.1,28.1,29.79,East,83,5.0,13.0,92,0.00,,,0.00,Wunderground v.1.15,2013-03-18 18:18:00,
2013-03-18 14:19:00,30.1,28.1,29.79,ENE,70,3.0,13.0,92,0.00,,,0.00,Wunderground v.1.15,2013-03-18 18:19:00,
2013-03-18 14:20:00,30.1,28.1,29.79,NE,47,3.0,8.0,92,0.00,,,0.00,Wunderground v.1.15,2013-03-18 18:20:00,
2013-03-18 14:23:00,30.2,28.2,29.79,East,91,7.0,8.0,92,0.00,,,0.00,Wunderground v.1.15,2013-03-18 18:23:00,
2013-03-18 14:24:00,30.3,28.3,29.79,South,175,4.0,8.0,92,0.00,,,0.00,Wunderground v.1.15,2013-03-18 18:24:00,
2013-03-18 14:25:00,30.3,28.3,29.79,ENE,76,3.0,8.0,92,0.00,,,0.00,Wunderground v.1.15,2013-03-18 18:25:00,
2013-03-18 14:28:00,30.4,28.4,29.80,East,79,4.0,8.0,92,0.00,,,0.00,Wunderground v.1.15,2013-03-18 18:28:00,
2013-03-18 14:30:00,30.4,28.4,29.80,East,79,3.0,4.0,92,0.00,,,0.00,Wunderground v.1.15,2013-03-18 18:30:00,
2013-03-18 14:33:00,30.4,28.4,29.79,ENE,64,6.0,11.0,92,0.00,,,0.00,Wunderground v.1.15,2013-03-18 18:33:00,
2013-03-18 14:35:00,30.4,28.4,29.79,East,98,4.0,11.0,92,0.00,,,0.00,Wunderground v.1.15,2013-03-18 18:35:00,
2013-03-18 14:36:00,30.4,28.4,29.79,East,79,3.0,11.0,92,0.00,,,0.00,Wunderground v.1.15,2013-03-18 18:36:00,
2013-03-18 14:38:00,30.4,28.6,29.78,ESE,104,5.0,11.0,93,0.00,,,0.00,Wunderground v.1.15,2013-03-18 18:38:00,
2013-03-18 14:40:00,30.4,28.6,29.78,East,83,6.0,6.0,93,0.00,,,0.00,Wunderground v.1.15,2013-03-18 18:40:00,
2013-03-18 14:41:00,30.4,28.6,29.78,East,89,3.0,6.0,93,0.00,,,0.00,Wunderground v.1.15,2013-03-18 18:41:00,
2013-03-18 14:43:00,30.4,28.6,29.78,ENE,76,6.0,7.0,93,0.00,,,0.00,Wunderground v.1.15,2013-03-18 18:43:00,
2013-03-18 14:45:00,30.4,28.6,29.78,ENE,68,8.0,8.0,93,0.00,,,0.00,Wunderground v.1.15,2013-03-18 18:45:00,
2013-03-18 14:46:00,30.4,28.6,29.77,ENE,78,4.0,16.0,93,0.00,,,0.00,Wunderground v.1.15,2013-03-18 18:46:00,
2013-03-18 14:48:00,30.4,28.6,29.77,East,88,3.0,16.0,93,0.00,,,0.00,Wunderground v.1.15,2013-03-18 18:48:00,
2013-03-18 14:50:00,30.4,28.6,29.77,ESE,104,7.0,7.0,93,0.00,,,0.00,Wunderground v.1.15,2013-03-18 18:50:00,
2013-03-18 14:52:00,30.4,28.6,29.76,ENE,65,3.0,7.0,93,0.00,,,0.00,Wunderground v.1.15,2013-03-18 18:52:00,
2013-03-18 14:53:00,30.4,28.6,29.76,East,79,3.0,9.0,93,0.00,,,0.00,Wunderground v.1.15,2013-03-18 18:53:00,
2013-03-18 14:56:00,30.5,28.7,29.76,ENE,57,3.0,9.0,93,0.00,,,0.00,Wunderground v.1.15,2013-03-18 18:56:00,
2013-03-18 14:57:00,30.5,28.7,29.76,ENE,76,4.0,9.0,93,0.00,,,0.00,Wunderground v.1.15,2013-03-18 18:57:00,
2013-03-18 14:58:00,30.5,28.7,29.76,North,349,2.0,9.0,93,0.00,,,0.00,Wunderground v.1.15,2013-03-18 18:58:00,
2013-03-18 14:59:00,30.5,28.7,29.76,NE,45,2.0,9.0,93,0.00,,,0.00,Wunderground v.1.15,2013-03-18 18:59:00,
2013-03-18 15:01:00,30.5,28.7,29.76,East,96,2.0,4.0,93,0.00,,,0.00,Wunderground v.1.15,2013-03-18 19:01:00,
2013-03-18 15:02:00,30.5,28.7,29.76,ENE,68,2.0,6.0,93,0.00,,,0.00,Wunderground v.1.15,2013-03-18 19:02:00,
2013-03-18 15:03:00,30.5,28.7,29.76,ENE,67,5.0,6.0,93,0.00,,,0.00,Wunderground v.1.15,2013-03-18 19:03:00,
2013-03-18 15:04:00,30.5,28.7,29.76,East,89,6.0,7.0,93,0.00,,,0.00,Wunderground v.1.15,2013-03-18 19:04:00,
2013-03-18 15:06:00,30.5,28.7,29.75,ESE,111,7.0,12.0,93,0.00,,,0.00,Wunderground v.1.15,2013-03-18 19:06:00,
2013-03-18 15:07:00,30.5,28.7,29.75,East,89,5.0,12.0,93,0.00,,,0.00,Wunderground v.1.15,2013-03-18 19:07:00,
2013-03-18 15:08:00,30.5,28.7,29.75,ENE,60,2.0,12.0,93,0.00,,,0.00,Wunderground v.1.15,2013-03-18 19:08:00,
2013-03-18 15:09:00,30.5,28.7,29.75,ENE,60,5.0,12.0,93,0.00,,,0.00,Wunderground v.1.15,2013-03-18 19:09:00,
2013-03-18 15:11:00,30.5,28.7,29.75,East,101,5.0,10.0,93,0.00,,,0.00,Wunderground v.1.15,2013-03-18 19:11:00,
2013-03-18 15:13:00,30.5,28.7,29.75,NE,56,4.0,10.0,93,0.00,,,0.00,Wunderground v.1.15,2013-03-18 19:13:00,
2013-03-18 15:14:00,30.5,28.7,29.75,ENE,75,3.0,10.0,93,0.00,,,0.00,Wunderground v.1.15,2013-03-18 19:14:00,
2013-03-18 15:17:00,30.5,28.7,29.74,ENE,62,6.0,10.0,93,0.00,,,0.00,Wunderground v.1.15,2013-03-18 19:17:00,
2013-03-18 15:18:00,30.5,28.7,29.74,ENE,72,3.0,10.0,93,0.00,,,0.00,Wunderground v.1.15,2013-03-18 19:18:00,
2013-03-18 15:19:00,30.5,28.7,29.74,NE,53,5.0,10.0,93,0.00,,,0.00,Wunderground v.1.15,2013-03-18 19:19:00,
2013-03-18 15:20:00,30.5,28.7,29.74,ENE,77,4.0,5.0,93,0.00,,,0.00,Wunderground v.1.15,2013-03-18 19:20:00,
2013-03-18 15:22:00,30.6,28.8,29.74,NE,49,4.0,6.0,93,0.00,,,0.00,Wunderground v.1.15,2013-03-18 19:22:00,
2013-03-18 15:24:00,30.6,28.8,29.74,East,94,3.0,8.0,93,0.00,,,0.00,Wunderground v.1.15,2013-03-18 19:24:00,
2013-03-18 15:25:00,30.6,29.1,29.74,East,88,5.0,8.0,94,0.00,,,0.00,Wunderground v.1.15,2013-03-18 19:25:00,
2013-03-18 15:27:00,30.6,29.1,29.73,ENE,75,3.0,8.0,94,0.00,,,0.00,Wunderground v.1.15,2013-03-18 19:27:00,
2013-03-18 15:29:00,30.6,29.1,29.73,East,84,3.0,8.0,94,0.00,,,0.00,Wunderground v.1.15,2013-03-18 19:29:00,
2013-03-18 15:30:00,30.6,29.1,29.73,East,85,3.0,4.0,94,0.00,,,0.00,Wunderground v.1.15,2013-03-18 19:30:00,
2013-03-18 15:32:00,30.6,29.1,29.73,East,91,5.0,6.0,94,0.00,,,0.00,Wunderground v.1.15,2013-03-18 19:32:00,
2013-03-18 15:34:00,30.7,29.2,29.73,East,98,13.0,13.0,94,0.00,,,0.00,Wunderground v.1.15,2013-03-18 19:34:00,
2013-03-18 15:35:00,30.7,29.2,29.72,ENE,57,5.0,13.0,94,0.00,,,0.00,Wunderground v.1.15,2013-03-18 19:35:00,
2013-03-18 15:37:00,30.7,29.2,29.72,ENE,75,7.0,13.0,94,0.00,,,0.00,Wunderground v.1.15,2013-03-18 19:37:00,
2013-03-18 15:39:00,30.8,29.3,29.71,ESE,103,8.0,13.0,94,0.00,,,0.00,Wunderground v.1.15,2013-03-18 19:39:00,
2013-03-18 15:40:00,30.7,29.2,29.71,ENE,75,6.0,6.0,94,0.00,,,0.00,Wunderground v.1.15,2013-03-18 19:40:00,
2013-03-18 15:43:00,30.8,29.3,29.71,East,86,3.0,13.0,94,0.00,,,0.00,Wunderground v.1.15,2013-03-18 19:43:00,
2013-03-18 15:44:00,30.8,29.3,29.71,East,83,6.0,13.0,94,0.00,,,0.00,Wunderground v.1.15,2013-03-18 19:44:00,
2013-03-18 15:45:00,30.8,29.3,29.71,ESE,120,2.0,13.0,94,0.00,,,0.00,Wunderground v.1.15,2013-03-18 19:45:00,
2013-03-18 15:46:00,30.8,29.3,29.71,ENE,72,2.0,13.0,94,0.00,,,0.00,Wunderground v.1.15,2013-03-18 19:46:00,
2013-03-18 15:48:00,30.8,29.3,29.71,ENE,76,3.0,13.0,94,0.00,,,0.00,Wunderground v.1.15,2013-03-18 19:48:00,
2013-03-18 15:49:00,30.8,29.3,29.71,NE,34,6.0,13.0,94,0.00,,,0.00,Wunderground v.1.15,2013-03-18 19:49:00,
2013-03-18 15:50:00,30.8,29.3,29.71,East,79,4.0,5.0,94,0.00,,,0.00,Wunderground v.1.15,2013-03-18 19:50:00,
2013-03-18 15:51:00,30.9,29.4,29.71,East,79,3.0,5.0,94,0.00,,,0.00,Wunderground v.1.15,2013-03-18 19:51:00,
2013-03-18 15:53:00,30.9,29.4,29.71,East,86,5.0,5.0,94,0.00,,,0.00,Wunderground v.1.15,2013-03-18 19:53:00,
2013-03-18 15:54:00,30.9,29.4,29.70,East,89,6.0,10.0,94,0.00,,,0.00,Wunderground v.1.15,2013-03-18 19:54:00,
2013-03-18 15:55:00,30.9,29.4,29.71,East,81,4.0,10.0,94,0.00,,,0.00,Wunderground v.1.15,2013-03-18 19:55:00,
2013-03-18 15:56:00,31.0,29.5,29.71,ENE,68,3.0,10.0,94,0.00,,,0.00,Wunderground v.1.15,2013-03-18 19:56:00,
2013-03-18 15:58:00,31.0,29.5,29.71,ENE,68,2.0,10.0,94,0.00,,,0.00,Wunderground v.1.15,2013-03-18 19:58:00,
2013-03-18 15:59:00,31.0,29.5,29.70,ENE,68,2.0,10.0,94,0.00,,,0.00,Wunderground v.1.15,2013-03-18 19:59:00,
2013-03-18 16:00:00,31.1,29.6,29.70,East,93,6.0,6.0,94,0.00,,,0.00,Wunderground v.1.15,2013-03-18 20:00:00,
2013-03-18 16:02:00,31.1,29.6,29.70,ENE,69,7.0,9.0,94,0.00,,,0.00,Wunderground v.1.15,2013-03-18 20:02:00,
2013-03-18 16:03:00,31.1,29.6,29.69,ENE,58,3.0,9.0,94,0.00,,,0.00,Wunderground v.1.15,2013-03-18 20:03:00,
2013-03-18 16:04:00,31.1,29.6,29.68,East,79,4.0,9.0,94,0.00,,,0.00,Wunderground v.1.15,2013-03-18 20:04:00,
2013-03-18 16:05:00,31.1,29.6,29.68,East,88,6.0,10.0,94,0.00,,,0.00,Wunderground v.1.15,2013-03-18 20:05:00,
2013-03-18 16:07:00,31.2,29.7,29.68,ENE,69,4.0,10.0,94,0.00,,,0.00,Wunderground v.1.15,2013-03-18 20:07:00,
2013-03-18 16:08:00,31.2,29.7,29.68,ENE,64,3.0,10.0,94,0.00,,,0.00,Wunderground v.1.15,2013-03-18 20:08:00,
2013-03-18 16:09:00,31.2,29.7,29.69,NE,55,4.0,10.0,94,0.00,,,0.00,Wunderground v.1.15,2013-03-18 20:09:00,
2013-03-18 16:11:00,31.2,29.7,29.68,ESE,114,4.0,11.0,94,0.00,,,0.00,Wunderground v.1.15,2013-03-18 20:11:00,
2013-03-18 16:12:00,31.2,29.7,29.68,ENE,62,4.0,11.0,94,0.00,,,0.00,Wunderground v.1.15,2013-03-18 20:12:00,
2013-03-18 16:13:00,31.2,29.7,29.68,ENE,62,3.0,11.0,94,0.00,,,0.00,Wunderground v.1.15,2013-03-18 20:13:00,
2013-03-18 16:14:00,31.3,29.8,29.69,ENE,77,5.0,11.0,94,0.00,,,0.00,Wunderground v.1.15,2013-03-18 20:14:00,
2013-03-18 16:16:00,31.3,29.8,29.69,East,98,6.0,11.0,94,0.00,,,0.00,Wunderground v.1.15,2013-03-18 20:16:00,
2013-03-18 16:17:00,31.3,29.8,29.69,East,79,8.0,13.0,94,0.00,,,0.00,Wunderground v.1.15,2013-03-18 20:17:00,
2013-03-18 16:18:00,31.3,29.8,29.69,NE,53,5.0,13.0,94,0.00,,,0.00,Wunderground v.1.15,2013-03-18 20:18:00,
2013-03-18 16:20:00,31.3,29.8,29.68,East,92,4.0,5.0,94,0.00,,,0.00,Wunderground v.1.15,2013-03-18 20:20:00,
2013-03-18 16:22:00,31.3,29.8,29.69,East,98,3.0,8.0,94,0.00,,,0.00,Wunderground v.1.15,2013-03-18 20:22:00,
2013-03-18 16:23:00,31.3,29.8,29.69,ESE,103,6.0,8.0,94,0.00,,,0.00,Wunderground v.1.15,2013-03-18 20:23:00,
2013-03-18 16:24:00,31.3,29.8,29.69,ENE,72,6.0,8.0,94,0.00,,,0.00,Wunderground v.1.15,2013-03-18 20:24:00,
2013-03-18 16:25:00,31.3,29.8,29.69,East,88,4.0,8.0,94,0.00,,,0.00,Wunderground v.1.15,2013-03-18 20:25:00,
2013-03-18 16:27:00,31.4,29.9,29.70,East,91,4.0,8.0,94,0.00,,,0.00,Wunderground v.1.15,2013-03-18 20:27:00,
2013-03-18 16:28:00,31.4,29.9,29.70,East,96,5.0,8.0,94,0.00,,,0.00,Wunderground v.1.15,2013-03-18 20:28:00,
2013-03-18 16:29:00,31.4,29.9,29.70,ENE,72,2.0,12.0,94,0.00,,,0.00,Wunderground v.1.15,2013-03-18 20:29:00,
2013-03-18 16:30:00,31.4,29.9,29.70,ESE,121,0.0,4.0,94,0.00,,,0.00,Wunderground v.1.15,2013-03-18 20:30:00,
2013-03-18 16:32:00,31.4,29.9,29.70,East,96,3.0,4.0,94,0.00,,,0.00,Wunderground v.1.15,2013-03-18 20:32:00,
2013-03-18 16:33:00,31.5,30.0,29.70,South,181,2.0,6.0,94,0.00,,,0.00,Wunderground v.1.15,2013-03-18 20:33:00,
2013-03-18 16:34:00,31.5,30.0,29.70,SSW,205,3.0,6.0,94,0.00,,,0.00,Wunderground v.1.15,2013-03-18 20:34:00,
2013-03-18 16:35:00,31.5,30.0,29.70,WSW,238,2.0,6.0,94,0.00,,,0.00,Wunderground v.1.15,2013-03-18 20:35:00,
2013-03-18 16:37:00,31.5,30.0,29.70,NE,41,4.0,7.0,94,0.00,,,0.00,Wunderground v.1.15,2013-03-18 20:37:00,
2013-03-18 16:38:00,31.5,30.0,29.70,ESE,106,2.0,7.0,94,0.00,,,0.00,Wunderground v.1.15,2013-03-18 20:38:00,
2013-03-18 16:39:00,31.5,30.0,29.70,SSW,203,3.0,8.0,94,0.00,,,0.00,Wunderground v.1.15,2013-03-18 20:39:00,
2013-03-18 16:40:00,31.5,30.0,29.70,East,83,3.0,5.0,94,0.00,,,0.00,Wunderground v.1.15,2013-03-18 20:40:00,
2013-03-18 16:42:00,31.6,30.1,29.70,ESE,105,2.0,5.0,94,0.00,,,0.00,Wunderground v.1.15,2013-03-18 20:42:00,
2013-03-18 16:43:00,31.6,30.1,29.70,East,84,4.0,5.0,94,0.00,,,0.00,Wunderground v.1.15,2013-03-18 20:43:00,
2013-03-18 16:44:00,31.6,30.1,29.70,NE,53,1.0,5.0,94,0.00,,,0.00,Wunderground v.1.15,2013-03-18 20:44:00,
2013-03-18 16:45:00,31.6,30.1,29.70,ESE,105,3.0,5.0,94,0.00,,,0.00,Wunderground v.1.15,2013-03-18 20:45:00,
2013-03-18 16:48:00,31.6,30.1,29.70,East,96,1.0,5.0,94,0.00,,,0.00,Wunderground v.1.15,2013-03-18 20:48:00,
2013-03-18 16:49:00,31.6,30.1,29.70,ENE,75,1.0,5.0,94,0.00,,,0.00,Wunderground v.1.15,2013-03-18 20:49:00,
2013-03-18 16:51:00,31.6,30.1,29.70,ENE,62,3.0,3.0,94,0.00,,,0.00,Wunderground v.1.15,2013-03-18 20:51:00,
2013-03-18 16:53:00,31.6,30.1,29.69,ENE,72,4.0,7.0,94,0.00,,,0.00,Wunderground v.1.15,2013-03-18 20:53:00,
2013-03-18 16:54:00,31.6,30.1,29.69,ENE,72,3.0,7.0,94,0.00,,,0.00,Wunderground v.1.15,2013-03-18 20:54:00,
2013-03-18 16:56:00,31.6,30.1,29.69,East,83,4.0,9.0,94,0.00,,,0.00,Wunderground v.1.15,2013-03-18 20:56:00,
2013-03-18 16:58:00,31.6,30.1,29.69,SE,139,1.0,9.0,94,0.00,,,0.00,Wunderground v.1.15,2013-03-18 20:58:00,
2013-03-18 16:59:00,31.6,30.1,29.69,ESE,121,1.0,9.0,94,0.00,,,0.00,Wunderground v.1.15,2013-03-18 20:59:00,
2013-03-18 17:01:00,31.6,30.3,29.68,East,83,3.0,5.0,95,0.00,,,0.00,Wunderground v.1.15,2013-03-18 21:01:00,
2013-03-18 17:03:00,31.7,30.4,29.68,East,95,4.0,7.0,95,0.00,,,0.00,Wunderground v.1.15,2013-03-18 21:03:00,
2013-03-18 17:04:00,31.7,30.4,29.68,ESE,112,2.0,7.0,95,0.00,,,0.00,Wunderground v.1.15,2013-03-18 21:04:00,
2013-03-18 17:05:00,31.7,30.4,29.68,WSW,239,2.0,7.0,95,0.00,,,0.00,Wunderground v.1.15,2013-03-18 21:05:00,
2013-03-18 17:07:00,31.7,30.4,29.69,SW,225,2.0,7.0,95,0.00,,,0.00,Wunderground v.1.15,2013-03-18 21:07:00,
2013-03-18 17:08:00,31.7,30.4,29.68,ENE,68,2.0,7.0,95,0.00,,,0.00,Wunderground v.1.15,2013-03-18 21:08:00,
2013-03-18 17:09:00,31.7,30.4,29.68,East,82,1.0,7.0,95,0.00,,,0.00,Wunderground v.1.15,2013-03-18 21:09:00,
2013-03-18 17:10:00,31.7,30.4,29.68,East,97,3.0,3.0,95,0.00,,,0.00,Wunderground v.1.15,2013-03-18 21:10:00,
2013-03-18 17:12:00,31.8,30.5,29.68,ESE,103,4.0,7.0,95,0.00,,,0.00,Wunderground v.1.15,2013-03-18 21:12:00,
2013-03-18 17:14:00,31.8,30.5,29.67,East,95,2.0,7.0,95,0.00,,,0.00,Wunderground v.1.15,2013-03-18 21:14:00,
2013-03-18 17:15:00,31.8,30.5,29.67,SE,128,1.0,7.0,95,0.00,,,0.00,Wunderground v.1.15,2013-03-18 21:15:00,
2013-03-18 17:17:00,31.8,30.5,29.68,ESE,119,2.0,7.0,95,0.00,,,0.00,Wunderground v.1.15,2013-03-18 21:17:00,
2013-03-18 17:19:00,31.8,30.5,29.67,NE,53,2.0,7.0,95,0.00,,,0.00,Wunderground v.1.15,2013-03-18 21:19:00,
2013-03-18 17:20:00,31.8,30.5,29.67,ENE,64,3.0,7.0,95,0.00,,,0.00,Wunderground v.1.15,2013-03-18 21:20:00,
2013-03-18 17:22:00,31.8,30.5,29.66,East,98,3.0,7.0,95,0.00,,,0.00,Wunderground v.1.15,2013-03-18 21:22:00,
2013-03-18 17:24:00,31.9,30.6,29.66,ENE,70,2.0,7.0,95,0.00,,,0.00,Wunderground v.1.15,2013-03-18 21:24:00,
2013-03-18 17:25:00,31.8,30.5,29.66,ENE,78,2.0,7.0,95,0.00,,,0.00,Wunderground v.1.15,2013-03-18 21:25:00,
2013-03-18 17:28:00,31.8,30.5,29.65,East,92,5.0,7.0,95,0.00,,,0.00,Wunderground v.1.15,2013-03-18 21:28:00,
2013-03-18 17:29:00,31.8,30.5,29.65,NNW,332,1.0,7.0,95,0.00,,,0.00,Wunderground v.1.15,2013-03-18 21:29:00,
2013-03-18 17:30:00,31.8,30.5,29.65,East,99,2.0,3.0,95,0.00,,,0.00,Wunderground v.1.15,2013-03-18 21:30:00,
2013-03-18 17:33:00,31.8,30.5,29.64,ENE,77,8.0,11.0,95,0.00,,,0.00,Wunderground v.1.15,2013-03-18 21:33:00,
2013-03-18 17:35:00,31.8,30.5,29.65,East,100,3.0,11.0,95,0.00,,,0.00,Wunderground v.1.15,2013-03-18 21:35:00,
2013-03-18 17:38:00,31.8,30.5,29.65,SSE,148,5.0,11.0,95,0.00,,,0.00,Wunderground v.1.15,2013-03-18 21:38:00,
2013-03-18 17:40:00,31.8,30.5,29.65,SE,134,7.0,9.0,95,0.00,,,0.00,Wunderground v.1.15,2013-03-18 21:40:00,
2013-03-18 17:43:00,31.8,30.5,29.65,ENE,64,1.0,11.0,95,0.00,,,0.00,Wunderground v.1.15,2013-03-18 21:43:00,
2013-03-18 17:45:00,31.8,30.5,29.65,ENE,74,4.0,11.0,95,0.00,,,0.00,Wunderground v.1.15,2013-03-18 21:45:00,
2013-03-18 17:46:00,31.8,30.5,29.65,ENE,66,2.0,11.0,95,0.00,,,0.00,Wunderground v.1.15,2013-03-18 21:46:00,
2013-03-18 17:48:00,31.8,30.5,29.65,NW,316,2.0,11.0,95,0.00,,,0.00,Wunderground v.1.15,2013-03-18 21:48:00,
2013-03-18 17:50:00,31.8,30.5,29.64,SW,215,2.0,6.0,95,0.00,,,0.00,Wunderground v.1.15,2013-03-18 21:50:00,
2013-03-18 17:51:00,31.8,30.5,29.64,East,90,2.0,6.0,95,0.00,,,0.00,Wunderground v.1.15,2013-03-18 21:51:00,
2013-03-18 17:52:00,31.8,30.5,29.64,East,100,1.0,6.0,95,0.00,,,0.00,Wunderground v.1.15,2013-03-18 21:52:00,
2013-03-18 17:53:00,31.8,30.5,29.64,NE,43,3.0,6.0,95,0.00,,,0.00,Wunderground v.1.15,2013-03-18 21:53:00,
2013-03-18 17:55:00,31.8,30.5,29.64,SE,133,2.0,10.0,95,0.00,,,0.00,Wunderground v.1.15,2013-03-18 21:55:00,
2013-03-18 17:57:00,31.8,30.5,29.64,ESE,119,2.0,10.0,95,0.00,,,0.00,Wunderground v.1.15,2013-03-18 21:57:00,
2013-03-18 17:59:00,31.8,30.5,29.64,ENE,57,3.0,10.0,95,0.00,,,0.00,Wunderground v.1.15,2013-03-18 21:59:00,
2013-03-18 18:00:00,31.8,30.5,29.65,WNW,285,3.0,3.0,95,0.00,,,0.00,Wunderground v.1.15,2013-03-18 22:00:00,
2013-03-18 18:02:00,31.8,30.5,29.64,East,79,3.0,6.0,95,0.00,,,0.00,Wunderground v.1.15,2013-03-18 22:02:00,
2013-03-18 18:04:00,31.8,30.5,29.64,SSE,156,2.0,6.0,95,0.00,,,0.00,Wunderground v.1.15,2013-03-18 22:04:00,
2013-03-18 18:05:00,31.8,30.5,29.65,WSW,257,0.0,6.0,95,0.00,,,0.00,Wunderground v.1.15,2013-03-18 22:05:00,
2013-03-18 18:07:00,31.8,30.5,29.65,East,84,0.0,6.0,95,0.00,,,0.00,Wunderground v.1.15,2013-03-18 22:07:00,
2013-03-18 18:09:00,31.8,30.5,29.65,NE,44,4.0,6.0,95,0.00,,,0.00,Wunderground v.1.15,2013-03-18 22:09:00,
2013-03-18 18:11:00,31.8,30.5,29.65,ESE,107,3.0,5.0,95,0.00,,,0.00,Wunderground v.1.15,2013-03-18 22:11:00,
2013-03-18 18:12:00,31.8,30.5,29.65,SSE,162,3.0,5.0,95,0.00,,,0.00,Wunderground v.1.15,2013-03-18 22:12:00,
2013-03-18 18:14:00,31.8,30.5,29.65,ENE,74,1.0,5.0,95,0.00,,,0.00,Wunderground v.1.15,2013-03-18 22:14:00,
2013-03-18 18:17:00,31.8,30.5,29.65,East,89,1.0,5.0,95,0.00,,,0.00,Wunderground v.1.15,2013-03-18 22:17:00,
2013-03-18 18:18:00,31.8,30.5,29.65,SE,133,0.0,5.0,95,0.00,,,0.00,Wunderground v.1.15,2013-03-18 22:18:00,
2013-03-18 18:19:00,31.8,30.5,29.65,ESE,103,3.0,7.0,95,0.00,,,0.00,Wunderground v.1.15,2013-03-18 22:19:00,
2013-03-18 18:22:00,31.8,30.5,29.64,East,101,1.0,4.0,95,0.00,,,0.00,Wunderground v.1.15,2013-03-18 22:22:00,
2013-03-18 18:23:00,31.8,30.5,29.64,ENE,62,2.0,4.0,95,0.00,,,0.00,Wunderground v.1.15,2013-03-18 22:23:00,
2013-03-18 18:24:00,31.7,30.4,29.64,ESE,102,4.0,6.0,95,0.00,,,0.00,Wunderground v.1.15,2013-03-18 22:24:00,
2013-03-18 18:27:00,31.8,30.5,29.64,East,82,0.0,6.0,95,0.00,,,0.00,Wunderground v.1.15,2013-03-18 22:27:00,
2013-03-18 18:28:00,31.8,30.5,29.64,South,172,3.0,6.0,95,0.00,,,0.00,Wunderground v.1.15,2013-03-18 22:28:00,
2013-03-18 18:29:00,31.8,30.5,29.65,SSE,165,2.0,6.0,95,0.00,,,0.00,Wunderground v.1.15,2013-03-18 22:29:00,
2013-03-18 18:32:00,31.8,30.5,29.65,ESE,119,1.0,4.0,95,0.00,,,0.00,Wunderground v.1.15,2013-03-18 22:32:00,
2013-03-18 18:33:00,31.8,30.5,29.65,ESE,119,0.0,4.0,95,0.00,,,0.00,Wunderground v.1.15,2013-03-18 22:33:00,
2013-03-18 18:34:00,31.8,30.5,29.65,ESE,117,0.0,4.0,95,0.00,,,0.00,Wunderground v.1.15,2013-03-18 22:34:00,
2013-03-18 18:37:00,31.8,30.5,29.64,East,94,1.0,4.0,95,0.00,,,0.00,Wunderground v.1.15,2013-03-18 22:37:00,
2013-03-18 18:38:00,31.8,30.5,29.64,ESE,118,0.0,5.0,95,0.00,,,0.00,Wunderground v.1.15,2013-03-18 22:38:00,
2013-03-18 18:39:00,31.8,30.5,29.64,East,83,2.0,5.0,95,0.00,,,0.00,Wunderground v.1.15,2013-03-18 22:39:00,
2013-03-18 18:42:00,31.8,30.5,29.64,NE,46,1.0,2.0,95,0.00,,,0.00,Wunderground v.1.15,2013-03-18 22:42:00,
2013-03-18 18:43:00,31.8,30.5,29.64,SE,132,3.0,3.0,95,0.00,,,0.00,Wunderground v.1.15,2013-03-18 22:43:00,
2013-03-18 18:44:00,31.8,30.5,29.64,ESE,108,0.0,3.0,95,0.00,,,0.00,Wunderground v.1.15,2013-03-18 22:44:00,
2013-03-18 18:47:00,31.9,30.6,29.65,SW,225,0.0,3.0,95,0.00,,,0.00,Wunderground v.1.15,2013-03-18 22:47:00,
2013-03-18 18:49:00,31.9,30.6,29.64,ESE,111,1.0,3.0,95,0.00,,,0.00,Wunderground v.1.15,2013-03-18 22:49:00,
2013-03-18 18:53:00,31.9,30.6,29.64,SSE,162,0.0,4.0,95,0.00,,,0.00,Wunderground v.1.15,2013-03-18 22:53:00,
2013-03-18 18:54:00,31.9,30.6,29.64,SE,125,0.0,4.0,95,0.00,,,0.00,Wunderground v.1.15,2013-03-18 22:54:00,
2013-03-18 18:58:00,31.9,30.6,29.64,East,98,2.0,4.0,95,0.00,,,0.00,Wunderground v.1.15,2013-03-18 22:58:00,
2013-03-18 18:59:00,32.0,30.7,29.64,ENE,57,2.0,4.0,95,0.00,,,0.00,Wunderground v.1.15,2013-03-18 22:59:00,
2013-03-18 19:03:00,32.0,30.7,29.64,SSE,158,2.0,4.0,95,0.00,,,0.00,Wunderground v.1.15,2013-03-18 23:03:00,
2013-03-18 19:04:00,32.0,30.7,29.64,ESE,121,0.0,4.0,95,0.00,,,0.00,Wunderground v.1.15,2013-03-18 23:04:00,
2013-03-18 19:08:00,32.0,30.7,29.64,ESE,117,0.0,4.0,95,0.00,,,0.00,Wunderground v.1.15,2013-03-18 23:08:00,
2013-03-18 19:09:00,32.0,30.7,29.64,ESE,117,0.0,4.0,95,0.00,,,0.00,Wunderground v.1.15,2013-03-18 23:09:00,
2013-03-18 19:10:00,32.0,30.7,29.64,ESE,117,0.0,0.0,95,0.00,,,0.00,Wunderground v.1.15,2013-03-18 23:10:00,
2013-03-18 19:13:00,32.0,30.7,29.63,ENE,72,1.0,5.0,95,0.00,,,0.00,Wunderground v.1.15,2013-03-18 23:13:00,
2013-03-18 19:14:00,32.0,30.7,29.63,ENE,58,2.0,5.0,95,0.00,,,0.00,Wunderground v.1.15,2013-03-18 23:14:00,
2013-03-18 19:15:00,32.0,30.7,29.63,SSE,166,2.0,5.0,95,0.00,,,0.00,Wunderground v.1.15,2013-03-18 23:15:00,
2013-03-18 19:18:00,32.0,30.7,29.63,ENE,60,4.0,5.0,95,0.00,,,0.00,Wunderground v.1.15,2013-03-18 23:18:00,
2013-03-18 19:19:00,32.0,30.7,29.63,South,188,1.0,5.0,95,0.00,,,0.00,Wunderground v.1.15,2013-03-18 23:19:00,
2013-03-18 19:20:00,32.0,30.7,29.63,North,352,1.0,1.0,95,0.00,,,0.00,Wunderground v.1.15,2013-03-18 23:20:00,
2013-03-18 19:23:00,32.0,30.7,29.64,ESE,108,0.0,4.0,95,0.00,,,0.00,Wunderground v.1.15,2013-03-18 23:23:00,
2013-03-18 19:24:00,32.0,30.7,29.64,ESE,108,0.0,4.0,95,0.00,,,0.00,Wunderground v.1.15,2013-03-18 23:24:00,
2013-03-18 19:25:00,32.0,30.7,29.64,ESE,109,0.0,4.0,95,0.00,,,0.00,Wunderground v.1.15,2013-03-18 23:25:00,
2013-03-18 19:29:00,32.0,30.7,29.64,SE,145,0.0,4.0,95,0.00,,,0.00,Wunderground v.1.15,2013-03-18 23:29:00,
2013-03-18 19:30:00,32.0,30.7,29.64,SE,146,0.0,1.0,95,0.00,,,0.00,Wunderground v.1.15,2013-03-18 23:30:00,
2013-03-18 19:31:00,32.0,30.7,29.64,WSW,252,0.0,1.0,95,0.00,,,0.00,Wunderground v.1.15,2013-03-18 23:31:00,
2013-03-18 19:34:00,32.0,30.7,29.64,WSW,255,1.0,1.0,95,0.00,,,0.00,Wunderground v.1.15,2013-03-18 23:34:00,
2013-03-18 19:35:00,32.0,30.7,29.64,WSW,255,0.0,1.0,95,0.00,,,0.00,Wunderground v.1.15,2013-03-18 23:35:00,
2013-03-18 19:36:00,32.0,30.7,29.64,WSW,243,0.0,1.0,95,0.00,,,0.00,Wunderground v.1.15,2013-03-18 23:36:00,
2013-03-18 19:39:00,32.1,30.8,29.65,WSW,246,0.0,1.0,95,0.00,,,0.00,Wunderground v.1.15,2013-03-18 23:39:00,
2013-03-18 19:40:00,32.0,31.0,29.65,WSW,243,1.0,1.0,96,0.00,,,0.00,Wunderground v.1.15,2013-03-18 23:40:00,
2013-03-18 19:42:00,32.0,31.0,29.65,SW,218,0.0,1.0,96,0.00,,,0.00,Wunderground v.1.15,2013-03-18 23:42:00,
2013-03-18 19:44:00,32.1,31.1,29.64,SW,218,0.0,1.0,96,0.00,,,0.00,Wunderground v.1.15,2013-03-18 23:44:00,
2013-03-18 19:45:00,32.1,31.1,29.64,SW,218,0.0,1.0,96,0.00,,,0.00,Wunderground v.1.15,2013-03-18 23:45:00,
2013-03-18 19:47:00,32.0,31.0,29.64,SW,218,0.0,1.0,96,0.00,,,0.00,Wunderground v.1.15,2013-03-18 23:47:00,
2013-03-18 19:49:00,32.1,31.1,29.64,SW,218,0.0,1.0,96,0.00,,,0.00,Wunderground v.1.15,2013-03-18 23:49:00,
2013-03-18 19:50:00,32.1,31.1,29.64,SW,218,0.0,0.0,96,0.00,,,0.00,Wunderground v.1.15,2013-03-18 23:50:00,
2013-03-18 19:51:00,32.1,31.1,29.64,SW,218,1.0,1.0,96,0.00,,,0.00,Wunderground v.1.15,2013-03-18 23:51:00,
2013-03-18 19:53:00,32.1,31.1,29.64,SE,143,0.0,2.0,96,0.00,,,0.00,Wunderground v.1.15,2013-03-18 23:53:00,
2013-03-18 19:54:00,32.1,31.1,29.64,SSE,150,0.0,2.0,96,0.00,,,0.00,Wunderground v.1.15,2013-03-18 23:54:00,
2013-03-18 19:55:00,32.1,31.1,29.64,SSE,150,0.0,2.0,96,0.00,,,0.00,Wunderground v.1.15,2013-03-18 23:55:00,
2013-03-18 19:57:00,32.1,31.1,29.64,SSE,150,0.0,2.0,96,0.00,,,0.00,Wunderground v.1.15,2013-03-18 23:57:00,
2013-03-18 19:58:00,32.1,31.1,29.64,SSE,150,0.0,2.0,96,0.00,,,0.00,Wunderground v.1.15,2013-03-18 23:58:00,
2013-03-18 19:59:00,32.1,31.1,29.64,SSE,150,0.0,2.0,96,0.00,,,0.00,Wunderground v.1.15,2013-03-18 23:59:00,
2013-03-18 20:01:00,32.1,31.1,29.64,SSE,151,1.0,1.0,96,0.00,,,0.00,Wunderground v.1.15,2013-03-19 00:01:00,
2013-03-18 20:02:00,32.1,31.1,29.64,SSE,150,1.0,1.0,96,0.00,,,0.00,Wunderground v.1.15,2013-03-19 00:02:00,
2013-03-18 20:03:00,32.1,31.1,29.64,SSE,150,0.0,1.0,96,0.00,,,0.00,Wunderground v.1.15,2013-03-19 00:03:00,
2013-03-18 20:04:00,32.1,31.1,29.64,SSE,154,0.0,1.0,96,0.00,,,0.00,Wunderground v.1.15,2013-03-19 00:04:00,
2013-03-18 20:07:00,32.1,31.1,29.64,SSE,152,0.0,1.0,96,0.00,,,0.00,Wunderground v.1.15,2013-03-19 00:07:00,
2013-03-18 20:08:00,32.1,31.1,29.64,SSE,152,0.0,1.0,96,0.00,,,0.00,Wunderground v.1.15,2013-03-19 00:08:00,
2013-03-18 20:10:00,32.1,31.1,29.64,SSE,153,0.0,0.0,96,0.00,,,0.00,Wunderground v.1.15,2013-03-19 00:10:00,
2013-03-18 20:12:00,32.1,31.1,29.64,SSE,152,0.0,0.0,96,0.00,,,0.00,Wunderground v.1.15,2013-03-19 00:12:00,
2013-03-18 20:13:00,32.1,31.1,29.64,South,173,0.0,0.0,96,0.00,,,0.00,Wunderground v.1.15,2013-03-19 00:13:00,
2013-03-18 20:15:00,32.1,31.1,29.64,SSE,155,0.0,2.0,96,0.00,,,0.00,Wunderground v.1.15,2013-03-19 00:15:00,
2013-03-18 20:17:00,32.1,31.1,29.64,SSE,155,0.0,2.0,96,0.00,,,0.00,Wunderground v.1.15,2013-03-19 00:17:00,
2013-03-18 20:18:00,32.2,31.2,29.64,SSE,155,0.0,2.0,96,0.00,,,0.00,Wunderground v.1.15,2013-03-19 00:18:00,
2013-03-18 20:20:00,32.1,31.1,29.64,SSE,155,0.0,0.0,96,0.00,,,0.00,Wunderground v.1.15,2013-03-19 00:20:00,
2013-03-18 20:22:00,32.1,31.1,29.64,SSE,155,0.0,0.0,96,0.00,,,0.00,Wunderground v.1.15,2013-03-19 00:22:00,
2013-03-18 20:23:00,32.1,31.1,29.64,SSE,155,0.0,0.0,96,0.00,,,0.00,Wunderground v.1.15,2013-03-19 00:23:00,
2013-03-18 20:24:00,32.1,31.1,29.64,SSE,155,0.0,0.0,96,0.00,,,0.00,Wunderground v.1.15,2013-03-19 00:24:00,
2013-03-18 20:25:00,32.1,31.1,29.64,SSE,155,0.0,0.0,96,0.00,,,0.00,Wunderground v.1.15,2013-03-19 00:25:00,
2013-03-18 20:28:00,32.1,31.1,29.64,SSE,155,0.0,0.0,96,0.00,,,0.00,Wunderground v.1.15,2013-03-19 00:28:00,
2013-03-18 20:29:00,32.1,31.1,29.64,SSE,155,0.0,0.0,96,0.00,,,0.00,Wunderground v.1.15,2013-03-19 00:29:00,
2013-03-18 20:30:00,32.1,31.1,29.63,SSE,155,0.0,0.0,96,0.00,,,0.00,Wunderground v.1.15,2013-03-19 00:30:00,
2013-03-18 20:33:00,32.1,31.1,29.63,SSE,155,0.0,0.0,96,0.00,,,0.00,Wunderground v.1.15,2013-03-19 00:33:00,
2013-03-18 20:34:00,32.1,31.1,29.63,SSE,155,0.0,0.0,96,0.00,,,0.00,Wunderground v.1.15,2013-03-19 00:34:00,
2013-03-18 20:35:00,32.1,31.1,29.63,SSE,155,0.0,0.0,96,0.00,,,0.00,Wunderground v.1.15,2013-03-19 00:35:00,
2013-03-18 20:38:00,32.1,31.1,29.63,SSE,155,0.0,1.0,96,0.00,,,0.00,Wunderground v.1.15,2013-03-19 00:38:00,
2013-03-18 20:39:00,32.1,31.1,29.63,WSW,243,0.0,1.0,96,0.00,,,0.00,Wunderground v.1.15,2013-03-19 00:39:00,
2013-03-18 20:41:00,32.1,31.1,29.63,WSW,243,0.0,0.0,96,0.00,,,0.00,Wunderground v.1.15,2013-03-19 00:41:00,
2013-03-18 20:43:00,32.1,31.1,29.63,WSW,243,0.0,0.0,96,0.00,,,0.00,Wunderground v.1.15,2013-03-19 00:43:00,
2013-03-18 20:45:00,32.1,31.1,29.63,South,190,0.0,1.0,96,0.00,,,0.00,Wunderground v.1.15,2013-03-19 00:45:00,
2013-03-18 20:46:00,32.1,31.1,29.63,South,190,0.0,1.0,96,0.00,,,0.00,Wunderground v.1.15,2013-03-19 00:46:00,
2013-03-18 20:48:00,32.1,31.1,29.63,South,190,0.0,1.0,96,0.00,,,0.00,Wunderground v.1.15,2013-03-19 00:48:00,
2013-03-18 20:49:00,32.1,31.1,29.63,South,190,0.0,1.0,96,0.00,,,0.00,Wunderground v.1.15,2013-03-19 00:49:00,
2013-03-18 20:50:00,32.1,31.1,29.63,South,190,0.0,0.0,96,0.00,,,0.00,Wunderground v.1.15,2013-03-19 00:50:00,
2013-03-18 20:51:00,32.1,31.1,29.63,South,190,0.0,0.0,96,0.00,,,0.00,Wunderground v.1.15,2013-03-19 00:51:00,
2013-03-18 20:53:00,32.1,31.1,29.64,WSW,243,1.0,3.0,96,0.00,,,0.00,Wunderground v.1.15,2013-03-19 00:53:00,
2013-03-18 20:54:00,32.1,31.1,29.64,WSW,243,0.0,3.0,96,0.00,,,0.00,Wunderground v.1.15,2013-03-19 00:54:00,
2013-03-18 20:55:00,32.2,31.2,29.64,WSW,243,0.0,3.0,96,0.00,,,0.00,Wunderground v.1.15,2013-03-19 00:55:00,
2013-03-18 20:56:00,32.2,31.2,29.64,WSW,243,0.0,3.0,96,0.00,,,0.00,Wunderground v.1.15,2013-03-19 00:56:00,
2013-03-18 20:58:00,32.2,31.2,29.64,WSW,243,0.0,3.0,96,0.00,,,0.00,Wunderground v.1.15,2013-03-19 00:58:00,
2013-03-18 20:59:00,32.2,31.2,29.64,WSW,243,0.0,3.0,96,0.00,,,0.00,Wunderground v.1.15,2013-03-19 00:59:00,
2013-03-18 21:00:00,32.2,31.2,29.64,WSW,243,0.0,0.0,96,0.00,,,0.00,Wunderground v.1.15,2013-03-19 01:00:00,
2013-03-18 21:02:00,32.2,31.2,29.64,WSW,243,0.0,0.0,96,0.00,,,0.00,Wunderground v.1.15,2013-03-19 01:02:00,
2013-03-18 21:03:00,32.2,31.2,29.64,WSW,251,2.0,2.0,96,0.00,,,0.00,Wunderground v.1.15,2013-03-19 01:03:00,
2013-03-18 21:04:00,32.2,31.2,29.64,WSW,238,2.0,2.0,96,0.00,,,0.00,Wunderground v.1.15,2013-03-19 01:04:00,
2013-03-18 21:05:00,32.2,31.2,29.64,WSW,242,1.0,2.0,96,0.00,,,0.00,Wunderground v.1.15,2013-03-19 01:05:00,
2013-03-18 21:07:00,32.2,31.2,29.64,SW,214,0.0,2.0,96,0.00,,,0.00,Wunderground v.1.15,2013-03-19 01:07:00,
2013-03-18 21:08:00,32.2,31.2,29.64,SW,214,0.0,2.0,96,0.00,,,0.00,Wunderground v.1.15,2013-03-19 01:08:00,
2013-03-18 21:09:00,32.2,31.2,29.64,SSE,156,1.0,2.0,96,0.00,,,0.00,Wunderground v.1.15,2013-03-19 01:09:00,
2013-03-18 21:10:00,32.2,31.2,29.64,WSW,256,2.0,3.0,96,0.00,,,0.00,Wunderground v.1.15,2013-03-19 01:10:00,
2013-03-18 21:12:00,32.2,31.2,29.64,West,263,2.0,3.0,96,0.00,,,0.00,Wunderground v.1.15,2013-03-19 01:12:00,
2013-03-18 21:14:00,32.3,31.3,29.64,SW,233,1.0,3.0,96,0.00,,,0.00,Wunderground v.1.15,2013-03-19 01:14:00,
2013-03-18 21:15:00,32.3,31.3,29.64,WSW,243,1.0,3.0,96,0.00,,,0.00,Wunderground v.1.15,2013-03-19 01:15:00,
2013-03-18 21:17:00,32.3,31.3,29.64,SW,228,2.0,3.0,96,0.00,,,0.00,Wunderground v.1.15,2013-03-19 01:17:00,
2013-03-18 21:19:00,32.3,31.3,29.64,WSW,239,2.0,3.0,96,0.00,,,0.00,Wunderground v.1.15,2013-03-19 01:19:00,
2013-03-18 21:20:00,32.3,31.3,29.64,SW,232,1.0,2.0,96,0.00,,,0.00,Wunderground v.1.15,2013-03-19 01:20:00,
2013-03-18 21:23:00,32.3,31.3,29.63,SW,235,1.0,2.0,96,0.00,,,0.00,Wunderground v.1.15,2013-03-19 01:23:00,
2013-03-18 21:24:00,32.3,31.3,29.63,WSW,243,2.0,2.0,96,0.00,,,0.00,Wunderground v.1.15,2013-03-19 01:24:00,
2013-03-18 21:25:00,32.3,31.3,29.63,SSE,149,0.0,2.0,96,0.00,,,0.00,Wunderground v.1.15,2013-03-19 01:25:00,
2013-03-18 21:28:00,32.3,31.3,29.63,WSW,246,2.0,2.0,96,0.00,,,0.00,Wunderground v.1.15,2013-03-19 01:28:00,
2013-03-18 21:29:00,32.3,31.3,29.63,WSW,240,2.0,2.0,96,0.00,,,0.00,Wunderground v.1.15,2013-03-19 01:29:00,
2013-03-18 21:30:00,32.3,31.3,29.63,West,276,2.0,4.0,96,0.00,,,0.00,Wunderground v.1.15,2013-03-19 01:30:00,
2013-03-18 21:33:00,32.3,31.3,29.63,WSW,243,2.0,4.0,96,0.00,,,0.00,Wunderground v.1.15,2013-03-19 01:33:00,
2013-03-18 21:34:00,32.4,31.4,29.63,SSW,205,3.0,4.0,96,0.00,,,0.00,Wunderground v.1.15,2013-03-19 01:34:00,
2013-03-18 21:35:00,32.4,31.4,29.63,WSW,243,2.0,4.0,96,0.00,,,0.00,Wunderground v.1.15,2013-03-19 01:35:00,
2013-03-18 21:38:00,32.5,31.5,29.63,WSW,243,1.0,6.0,96,0.00,,,0.00,Wunderground v.1.15,2013-03-19 01:38:00,
2013-03-18 21:39:00,32.5,31.5,29.63,WSW,240,2.0,6.0,96,0.00,,,0.00,Wunderground v.1.15,2013-03-19 01:39:00,
2013-03-18 21:41:00,32.5,31.5,29.63,SW,229,4.0,5.0,96,0.00,,,0.00,Wunderground v.1.15,2013-03-19 01:41:00,
2013-03-18 21:43:00,32.6,31.6,29.63,WSW,248,3.0,5.0,96,0.00,,,0.00,Wunderground v.1.15,2013-03-19 01:43:00,
2013-03-18 21:45:00,32.6,31.6,29.63,WSW,253,4.0,7.0,96,0.00,,,0.00,Wunderground v.1.15,2013-03-19 01:45:00,
2013-03-18 21:47:00,32.7,31.7,29.63,WSW,253,5.0,7.0,96,0.00,,,0.00,Wunderground v.1.15,2013-03-19 01:47:00,
2013-03-18 21:48:00,32.7,31.7,29.63,SW,229,4.0,7.0,96,0.00,,,0.00,Wunderground v.1.15,2013-03-19 01:48:00,
2013-03-18 21:50:00,32.8,31.8,29.63,WSW,256,5.0,5.0,96,0.00,,,0.00,Wunderground v.1.15,2013-03-19 01:50:00,
2013-03-18 21:52:00,32.8,31.8,29.63,SW,228,4.0,5.0,96,0.00,,,0.00,Wunderground v.1.15,2013-03-19 01:52:00,
2013-03-18 21:53:00,32.9,31.9,29.63,West,264,4.0,8.0,96,0.00,,,0.00,Wunderground v.1.15,2013-03-19 01:53:00,
2013-03-18 21:55:00,32.9,31.9,29.63,West,269,4.0,9.0,96,0.00,,,0.00,Wunderground v.1.15,2013-03-19 01:55:00,
2013-03-18 21:57:00,33.0,32.0,29.63,WSW,245,4.0,9.0,96,0.00,,,0.00,Wunderground v.1.15,2013-03-19 01:57:00,
2013-03-18 21:58:00,33.0,32.0,29.63,WSW,243,5.0,9.0,96,0.00,,,0.00,Wunderground v.1.15,2013-03-19 01:58:00,
2013-03-18 22:00:00,33.1,32.1,29.63,West,259,4.0,7.0,96,0.00,,,0.00,Wunderground v.1.15,2013-03-19 02:00:00,
2013-03-18 22:01:00,33.1,32.1,29.63,West,270,4.0,7.0,96,0.00,,,0.00,Wunderground v.1.15,2013-03-19 02:01:00,
2013-03-18 22:03:00,33.1,32.1,29.63,WNW,284,2.0,8.0,96,0.00,,,0.00,Wunderground v.1.15,2013-03-19 02:03:00,
2013-03-18 22:05:00,33.2,32.2,29.63,WSW,251,6.0,14.0,96,0.00,,,0.00,Wunderground v.1.15,2013-03-19 02:05:00,
2013-03-18 22:06:00,33.2,32.2,29.63,WSW,246,8.0,14.0,96,0.00,,,0.00,Wunderground v.1.15,2013-03-19 02:06:00,
2013-03-18 22:08:00,33.2,32.2,29.63,WNW,289,6.0,14.0,96,0.00,,,0.00,Wunderground v.1.15,2013-03-19 02:08:00,
2013-03-18 22:09:00,33.2,32.2,29.63,WSW,251,6.0,14.0,96,0.00,,,0.00,Wunderground v.1.15,2013-03-19 02:09:00,
2013-03-18 22:10:00,33.3,32.3,29.63,West,262,4.0,5.0,96,0.00,,,0.00,Wunderground v.1.15,2013-03-19 02:10:00,
2013-03-18 22:11:00,33.3,32.3,29.63,WSW,245,6.0,6.0,96,0.00,,,0.00,Wunderground v.1.15,2013-03-19 02:11:00,
2013-03-18 22:13:00,33.3,32.3,29.63,West,278,4.0,11.0,96,0.00,,,0.00,Wunderground v.1.15,2013-03-19 02:13:00,
2013-03-18 22:14:00,33.3,32.3,29.63,West,267,4.0,11.0,96,0.00,,,0.00,Wunderground v.1.15,2013-03-19 02:14:00,
2013-03-18 22:15:00,33.3,32.3,29.63,WSW,250,8.0,11.0,96,0.00,,,0.00,Wunderground v.1.15,2013-03-19 02:15:00,
2013-03-18 22:16:00,33.3,32.3,29.63,WSW,252,6.0,11.0,96,0.00,,,0.00,Wunderground v.1.15,2013-03-19 02:16:00,
2013-03-18 22:18:00,33.3,32.0,29.63,WSW,258,5.0,11.0,95,0.00,,,0.00,Wunderground v.1.15,2013-03-19 02:18:00,
2013-03-18 22:19:00,33.4,32.1,29.63,SW,233,6.0,11.0,95,0.00,,,0.00,Wunderground v.1.15,2013-03-19 02:19:00,
2013-03-18 22:20:00,33.4,32.1,29.63,WSW,257,5.0,9.0,95,0.00,,,0.00,Wunderground v.1.15,2013-03-19 02:20:00,
2013-03-18 22:21:00,33.4,32.1,29.63,WSW,246,6.0,9.0,95,0.00,,,0.00,Wunderground v.1.15,2013-03-19 02:21:00,
2013-03-18 22:24:00,33.4,32.1,29.63,West,278,3.0,11.0,95,0.00,,,0.00,Wunderground v.1.15,2013-03-19 02:24:00,
2013-03-18 22:26:00,33.4,32.1,29.63,WSW,243,7.0,11.0,95,0.00,,,0.00,Wunderground v.1.15,2013-03-19 02:26:00,
2013-03-18 22:27:00,33.4,32.1,29.63,WSW,238,6.0,11.0,95,0.00,,,0.00,Wunderground v.1.15,2013-03-19 02:27:00,
2013-03-18 22:29:00,33.5,32.2,29.63,SW,222,4.0,11.0,95,0.00,,,0.00,Wunderground v.1.15,2013-03-19 02:29:00,
2013-03-18 22:32:00,33.5,32.0,29.64,SW,226,7.0,8.0,94,0.00,,,0.00,Wunderground v.1.15,2013-03-19 02:32:00,
2013-03-18 22:34:00,33.4,31.9,29.64,WNW,301,4.0,8.0,94,0.00,,,0.00,Wunderground v.1.15,2013-03-19 02:34:00,
2013-03-18 22:37:00,33.4,31.9,29.64,WSW,253,5.0,8.0,94,0.00,,,0.00,Wunderground v.1.15,2013-03-19 02:37:00,
2013-03-18 22:39:00,33.4,31.9,29.64,WSW,257,6.0,8.0,94,0.00,,,0.00,Wunderground v.1.15,2013-03-19 02:39:00,
2013-03-18 22:40:00,33.4,31.9,29.64,WSW,251,7.0,7.0,94,0.00,,,0.00,Wunderground v.1.15,2013-03-19 02:40:00,
2013-03-18 22:42:00,33.4,31.9,29.64,WSW,252,5.0,8.0,94,0.00,,,0.00,Wunderground v.1.15,2013-03-19 02:42:00,
2013-03-18 22:43:00,33.4,31.9,29.64,WSW,252,5.0,8.0,94,0.00,,,0.00,Wunderground v.1.15,2013-03-19 02:43:00,
2013-03-18 22:44:00,33.4,31.9,29.64,West,266,4.0,9.0,94,0.00,,,0.00,Wunderground v.1.15,2013-03-19 02:44:00,
2013-03-18 22:45:00,33.4,31.9,29.64,West,271,3.0,9.0,94,0.00,,,0.00,Wunderground v.1.15,2013-03-19 02:45:00,
2013-03-18 22:48:00,33.4,31.6,29.64,West,274,5.0,10.0,93,0.00,,,0.00,Wunderground v.1.15,2013-03-19 02:48:00,
2013-03-18 22:49:00,33.4,31.6,29.64,SE,135,3.0,10.0,93,0.00,,,0.00,Wunderground v.1.15,2013-03-19 02:49:00,
2013-03-18 22:50:00,33.5,31.7,29.64,West,273,4.0,7.0,93,0.00,,,0.00,Wunderground v.1.15,2013-03-19 02:50:00,
2013-03-18 22:53:00,33.5,31.7,29.64,West,264,4.0,7.0,93,0.00,,,0.00,Wunderground v.1.15,2013-03-19 02:53:00,
2013-03-18 22:54:00,33.5,31.7,29.64,West,267,4.0,12.0,93,0.00,,,0.00,Wunderground v.1.15,2013-03-19 02:54:00,
2013-03-18 22:55:00,33.5,31.7,29.64,West,267,6.0,12.0,93,0.00,,,0.00,Wunderground v.1.15,2013-03-19 02:55:00,
2013-03-18 22:58:00,33.5,31.7,29.64,WSW,253,3.0,12.0,93,0.00,,,0.00,Wunderground v.1.15,2013-03-19 02:58:00,
2013-03-18 22:59:00,33.4,31.6,29.64,West,279,5.0,12.0,93,0.00,,,0.00,Wunderground v.1.15,2013-03-19 02:59:00,
2013-03-18 23:00:00,33.4,31.6,29.64,WSW,256,4.0,5.0,93,0.00,,,0.00,Wunderground v.1.15,2013-03-19 03:00:00,
2013-03-18 23:03:00,33.5,31.7,29.64,West,260,4.0,11.0,93,0.00,,,0.00,Wunderground v.1.15,2013-03-19 03:03:00,
2013-03-18 23:04:00,33.5,31.4,29.64,WNW,285,5.0,11.0,92,0.00,,,0.00,Wunderground v.1.15,2013-03-19 03:04:00,
2013-03-18 23:07:00,33.5,31.4,29.64,West,273,3.0,11.0,92,0.00,,,0.00,Wunderground v.1.15,2013-03-19 03:07:00,
2013-03-18 23:08:00,33.5,31.4,29.64,SW,228,9.0,11.0,92,0.00,,,0.00,Wunderground v.1.15,2013-03-19 03:08:00,
2013-03-18 23:09:00,33.5,31.4,29.64,WSW,254,5.0,11.0,92,0.00,,,0.00,Wunderground v.1.15,2013-03-19 03:09:00,
2013-03-18 23:12:00,33.5,31.4,29.64,West,277,3.0,9.0,92,0.00,,,0.00,Wunderground v.1.15,2013-03-19 03:12:00,
2013-03-18 23:13:00,33.5,31.4,29.64,WSW,252,5.0,9.0,92,0.00,,,0.00,Wunderground v.1.15,2013-03-19 03:13:00,
2013-03-18 23:14:00,33.5,31.2,29.64,West,259,4.0,10.0,91,0.00,,,0.00,Wunderground v.1.15,2013-03-19 03:14:00,
2013-03-18 23:17:00,33.5,31.2,29.64,West,262,5.0,11.0,91,0.00,,,0.00,Wunderground v.1.15,2013-03-19 03:17:00,
2013-03-18 23:18:00,33.5,31.2,29.64,West,269,4.0,11.0,91,0.00,,,0.00,Wunderground v.1.15,2013-03-19 03:18:00,
2013-03-18 23:19:00,33.5,31.2,29.64,SW,228,3.0,5.0,91,0.00,,,0.00,Wunderground v.1.15,2013-03-19 03:19:00,
2013-03-18 23:23:00,33.4,31.1,29.64,WSW,256,8.0,15.0,91,0.00,,,0.00,Wunderground v.1.15,2013-03-19 03:23:00,
2013-03-18 23:24:00,33.5,31.2,29.64,West,280,4.0,15.0,91,0.00,,,0.00,Wunderground v.1.15,2013-03-19 03:24:00,
2013-03-18 23:28:00,33.5,30.9,29.64,West,266,4.0,15.0,90,0.00,,,0.00,Wunderground v.1.15,2013-03-19 03:28:00,
2013-03-18 23:29:00,33.5,30.9,29.64,WSW,254,5.0,15.0,90,0.00,,,0.00,Wunderground v.1.15,2013-03-19 03:29:00,
2013-03-18 23:30:00,33.5,30.9,29.64,West,263,4.0,5.0,90,0.00,,,0.00,Wunderground v.1.15,2013-03-19 03:30:00,
2013-03-18 23:33:00,33.5,30.9,29.65,West,281,2.0,8.0,90,0.00,,,0.00,Wunderground v.1.15,2013-03-19 03:33:00,
2013-03-18 23:34:00,33.5,30.9,29.64,West,273,4.0,9.0,90,0.00,,,0.00,Wunderground v.1.15,2013-03-19 03:34:00,
2013-03-18 23:35:00,33.4,30.8,29.64,WSW,245,3.0,9.0,90,0.00,,,0.00,Wunderground v.1.15,2013-03-19 03:35:00,
2013-03-18 23:38:00,33.4,30.8,29.65,West,273,2.0,9.0,90,0.00,,,0.00,Wunderground v.1.15,2013-03-19 03:38:00,
2013-03-18 23:39:00,33.4,30.8,29.65,WSW,240,7.0,9.0,90,0.00,,,0.00,Wunderground v.1.15,2013-03-19 03:39:00,
2013-03-18 23:40:00,33.4,30.8,29.65,WSW,240,5.0,7.0,90,0.00,,,0.00,Wunderground v.1.15,2013-03-19 03:40:00,
2013-03-18 23:43:00,33.3,30.7,29.65,WSW,250,2.0,7.0,90,0.00,,,0.00,Wunderground v.1.15,2013-03-19 03:43:00,
2013-03-18 23:44:00,33.3,30.7,29.65,WSW,243,6.0,7.0,90,0.00,,,0.00,Wunderground v.1.15,2013-03-19 03:44:00,
2013-03-18 23:45:00,33.3,30.7,29.65,WNW,287,2.0,8.0,90,0.00,,,0.00,Wunderground v.1.15,2013-03-19 03:45:00,
2013-03-18 23:48:00,33.3,30.7,29.65,West,266,5.0,11.0,90,0.00,,,0.00,Wunderground v.1.15,2013-03-19 03:48:00,
2013-03-18 23:49:00,33.3,30.7,29.65,West,264,4.0,11.0,90,0.00,,,0.00,Wunderground v.1.15,2013-03-19 03:49:00,
2013-03-18 23:50:00,33.3,30.7,29.65,West,271,6.0,6.0,90,0.00,,,0.00,Wunderground v.1.15,2013-03-19 03:50:00,
2013-03-18 23:54:00,33.3,30.7,29.66,West,263,2.0,11.0,90,0.00,,,0.00,Wunderground v.1.15,2013-03-19 03:54:00,
2013-03-18 23:56:00,33.3,30.7,29.66,West,269,7.0,11.0,90,0.00,,,0.00,Wunderground v.1.15,2013-03-19 03:56:00,
2013-03-18 23:59:00,33.3,30.7,29.66,WSW,249,10.0,11.0,90,0.00,,,0.00,Wunderground v.1.15,2013-03-19 03:59:00,